2016 Cux-Wetter.de -Die Nutzung der Wetterdaten nur mit ausdrcklicher Genehmigung
Wetterdaten: Dienstag, 03.07.2018
Datum Zeit Temp. A. Feuchte A. Luftdruck Regen Wind Richtung Richtung Sonnenschein Solar Taupunkt Windchill Windben
03.07.2018 00:00 16,8 C 85 % 1017,1 hPa 0,0 l/m 3,7 km/h (1 Bft) N 360 0 min 0 W/m 14,3 C 16,8 C 6,4 km/h (2 Bft)
03.07.2018 00:03 16,8 C 85 % 1017,1 hPa 0,0 l/m 2,4 km/h (1 Bft) N 360 0 min 0 W/m 14,3 C 16,8 C 4,8 km/h (1 Bft)
03.07.2018 00:06 16,8 C 85 % 1017,1 hPa 0,0 l/m 3,7 km/h (1 Bft) N 360 0 min 0 W/m 14,3 C 16,8 C 6,4 km/h (2 Bft)
03.07.2018 00:09 16,8 C 85 % 1017,1 hPa 0,0 l/m 3,5 km/h (1 Bft) N 360 0 min 0 W/m 14,3 C 16,8 C 6,4 km/h (2 Bft)
03.07.2018 00:12 16,7 C 85 % 1017,1 hPa 0,0 l/m 2,6 km/h (1 Bft) N 355 0 min 0 W/m 14,2 C 16,7 C 6,4 km/h (2 Bft)
03.07.2018 00:15 16,7 C 86 % 1017,2 hPa 0,0 l/m 2,6 km/h (1 Bft) N 355 0 min 0 W/m 14,3 C 16,7 C 6,4 km/h (2 Bft)
03.07.2018 00:18 16,7 C 85 % 1017,1 hPa 0,0 l/m 2,9 km/h (1 Bft) N 5 0 min 0 W/m 14,2 C 16,7 C 6,4 km/h (2 Bft)
03.07.2018 00:21 16,6 C 85 % 1017,1 hPa 0,0 l/m 3,5 km/h (1 Bft) N 360 0 min 0 W/m 14,1 C 16,6 C 6,4 km/h (2 Bft)
03.07.2018 00:24 16,6 C 85 % 1017,1 hPa 0,0 l/m 2,7 km/h (1 Bft) N 360 0 min 0 W/m 14,1 C 16,6 C 6,4 km/h (2 Bft)
03.07.2018 00:27 16,4 C 85 % 1017,1 hPa 0,0 l/m 3,7 km/h (1 Bft) N-NW 344 0 min 0 W/m 13,9 C 16,4 C 8,0 km/h (2 Bft)
03.07.2018 00:30 16,4 C 85 % 1017,1 hPa 0,0 l/m 2,1 km/h (1 Bft) N-NW 344 0 min 0 W/m 13,9 C 16,4 C 4,8 km/h (1 Bft)
03.07.2018 00:33 16,3 C 85 % 1017,1 hPa 0,0 l/m 2,5 km/h (1 Bft) N-NW 344 0 min 0 W/m 13,8 C 16,3 C 6,4 km/h (2 Bft)
03.07.2018 00:36 16,3 C 85 % 1017,1 hPa 0,0 l/m 1,0 km/h (0 Bft) N-NW 344 0 min 0 W/m 13,8 C 16,3 C 6,4 km/h (2 Bft)
03.07.2018 00:39 16,2 C 85 % 1017,0 hPa 0,0 l/m 0,6 km/h (0 Bft) N-NW 344 0 min 0 W/m 13,7 C 16,2 C 3,2 km/h (1 Bft)
03.07.2018 00:42 16,2 C 85 % 1017,0 hPa 0,0 l/m 1,1 km/h (1 Bft) N-NW 344 0 min 0 W/m 13,7 C 16,2 C 3,2 km/h (1 Bft)
03.07.2018 00:45 16,1 C 85 % 1017,0 hPa 0,0 l/m 0,9 km/h (0 Bft) N-NW 344 0 min 0 W/m 13,6 C 16,1 C 3,2 km/h (1 Bft)
03.07.2018 00:48 16,0 C 85 % 1017,0 hPa 0,0 l/m 0,6 km/h (0 Bft) N-NW 344 0 min 0 W/m 13,5 C 16,0 C 3,2 km/h (1 Bft)
03.07.2018 00:51 15,9 C 85 % 1017,0 hPa 0,0 l/m 0,9 km/h (0 Bft) N-NW 344 0 min 0 W/m 13,4 C 15,9 C 3,2 km/h (1 Bft)
03.07.2018 00:54 15,8 C 85 % 1017,0 hPa 0,0 l/m 0,7 km/h (0 Bft) N-NW 344 0 min 0 W/m 13,3 C 15,8 C 4,8 km/h (1 Bft)
03.07.2018 00:57 15,8 C 85 % 1017,0 hPa 0,0 l/m 0,3 km/h (0 Bft) N-NW 344 0 min 0 W/m 13,3 C 15,8 C 4,8 km/h (1 Bft)
03.07.2018 01:00 15,7 C 85 % 1017,0 hPa 0,0 l/m 0,3 km/h (0 Bft) N-NW 344 0 min 0 W/m 13,2 C 15,7 C 1,6 km/h (1 Bft)
03.07.2018 01:03 15,7 C 86 % 1017,0 hPa 0,0 l/m 0,5 km/h (0 Bft) N-NW 344 0 min 0 W/m 13,4 C 15,7 C 3,2 km/h (1 Bft)
03.07.2018 01:06 15,6 C 86 % 1017,1 hPa 0,0 l/m 0,3 km/h (0 Bft) N-NW 344 0 min 0 W/m 13,3 C 15,6 C 3,2 km/h (1 Bft)
03.07.2018 01:09 15,6 C 86 % 1017,1 hPa 0,0 l/m 0,2 km/h (0 Bft) N-NW 344 0 min 0 W/m 13,3 C 15,6 C 1,6 km/h (1 Bft)
03.07.2018 01:12 15,6 C 86 % 1017,0 hPa 0,0 l/m 0,0 km/h (0 Bft) N-NW 344 0 min 0 W/m 13,3 C 15,6 C 1,6 km/h (1 Bft)
03.07.2018 01:15 15,4 C 85 % 1017,0 hPa 0,0 l/m 0,0 km/h (0 Bft) N-NW 344 0 min 0 W/m 12,9 C 15,4 C 0,0 km/h (0 Bft)
03.07.2018 01:18 15,1 C 85 % 1017,0 hPa 0,0 l/m 0,0 km/h (0 Bft) N-NW 344 0 min 0 W/m 12,6 C 15,1 C 0,0 km/h (0 Bft)
03.07.2018 01:21 14,9 C 85 % 1017,0 hPa 0,0 l/m 0,0 km/h (0 Bft) N-NW 344 0 min 0 W/m 12,4 C 14,9 C 0,0 km/h (0 Bft)
03.07.2018 01:24 14,7 C 86 % 1017,0 hPa 0,0 l/m 0,0 km/h (0 Bft) N-NW 344 0 min 0 W/m 12,4 C 14,7 C 0,0 km/h (0 Bft)
03.07.2018 01:27 14,6 C 86 % 1017,1 hPa 0,0 l/m 0,0 km/h (0 Bft) N-NW 344 0 min 0 W/m 12,3 C 14,6 C 0,0 km/h (0 Bft)
03.07.2018 01:30 14,5 C 86 % 1017,0 hPa 0,0 l/m 0,0 km/h (0 Bft) N-NW 344 0 min 0 W/m 12,2 C 14,5 C 0,0 km/h (0 Bft)
03.07.2018 01:33 14,3 C 86 % 1017,1 hPa 0,0 l/m 0,0 km/h (0 Bft) N-NW 344 0 min 0 W/m 12,0 C 14,3 C 0,0 km/h (0 Bft)
03.07.2018 01:36 14,2 C 86 % 1017,1 hPa 0,0 l/m 0,0 km/h (0 Bft) N-NW 344 0 min 0 W/m 11,9 C 14,2 C 0,0 km/h (0 Bft)
03.07.2018 01:39 13,9 C 87 % 1017,1 hPa 0,0 l/m 0,0 km/h (0 Bft) N-NW 344 0 min 0 W/m 11,8 C 13,9 C 0,0 km/h (0 Bft)
03.07.2018 01:42 13,8 C 87 % 1017,1 hPa 0,0 l/m 0,0 km/h (0 Bft) N-NW 344 0 min 0 W/m 11,7 C 13,8 C 0,0 km/h (0 Bft)
03.07.2018 01:45 13,8 C 87 % 1017,1 hPa 0,0 l/m 0,0 km/h (0 Bft) N-NW 344 0 min 0 W/m 11,7 C 13,8 C 0,0 km/h (0 Bft)
03.07.2018 01:48 13,8 C 88 % 1017,1 hPa 0,0 l/m 0,0 km/h (0 Bft) N-NW 344 0 min 0 W/m 11,8 C 13,8 C 0,0 km/h (0 Bft)
03.07.2018 01:51 13,7 C 88 % 1017,1 hPa 0,0 l/m 0,0 km/h (0 Bft) N-NW 344 0 min 0 W/m 11,7 C 13,7 C 0,0 km/h (0 Bft)
03.07.2018 01:54 13,8 C 89 % 1017,0 hPa 0,0 l/m 0,0 km/h (0 Bft) N-NW 344 0 min 0 W/m 12,0 C 13,8 C 0,0 km/h (0 Bft)
03.07.2018 01:57 13,8 C 89 % 1017,1 hPa 0,0 l/m 0,0 km/h (0 Bft) N-NW 344 0 min 0 W/m 12,0 C 13,8 C 0,0 km/h (0 Bft)
03.07.2018 02:00 13,8 C 90 % 1017,1 hPa 0,0 l/m 0,1 km/h (0 Bft) N-NW 344 0 min 0 W/m 12,2 C 13,8 C 1,6 km/h (1 Bft)
03.07.2018 02:03 13,8 C 90 % 1017,0 hPa 0,0 l/m 0,0 km/h (0 Bft) N-NW 344 0 min 0 W/m 12,2 C 13,8 C 0,0 km/h (0 Bft)
03.07.2018 02:06 13,8 C 90 % 1017,1 hPa 0,0 l/m 0,0 km/h (0 Bft) N-NW 344 0 min 0 W/m 12,2 C 13,8 C 1,6 km/h (1 Bft)
03.07.2018 02:09 13,8 C 89 % 1017,1 hPa 0,0 l/m 0,0 km/h (0 Bft) N-NW 344 0 min 0 W/m 12,0 C 13,8 C 0,0 km/h (0 Bft)
03.07.2018 02:12 13,7 C 89 % 1017,1 hPa 0,0 l/m 0,0 km/h (0 Bft) N-NW 344 0 min 0 W/m 11,9 C 13,7 C 0,0 km/h (0 Bft)
03.07.2018 02:15 13,7 C 89 % 1017,2 hPa 0,0 l/m 0,0 km/h (0 Bft) N-NW 344 0 min 0 W/m 11,9 C 13,7 C 1,6 km/h (1 Bft)
03.07.2018 02:18 13,8 C 90 % 1017,1 hPa 0,0 l/m 0,9 km/h (0 Bft) N-NW 344 0 min 0 W/m 12,2 C 13,8 C 3,2 km/h (1 Bft)
03.07.2018 02:21 13,9 C 90 % 1017,1 hPa 0,0 l/m 0,6 km/h (0 Bft) N-NW 344 0 min 0 W/m 12,3 C 13,9 C 3,2 km/h (1 Bft)
03.07.2018 02:24 13,9 C 90 % 1017,1 hPa 0,0 l/m 1,0 km/h (0 Bft) N-NW 344 0 min 0 W/m 12,3 C 13,9 C 3,2 km/h (1 Bft)
03.07.2018 02:27 13,8 C 89 % 1017,1 hPa 0,0 l/m 0,6 km/h (0 Bft) N-NW 344 0 min 0 W/m 12,0 C 13,8 C 3,2 km/h (1 Bft)
03.07.2018 02:30 13,6 C 89 % 1017,1 hPa 0,0 l/m 0,3 km/h (0 Bft) N-NW 344 0 min 0 W/m 11,8 C 13,6 C 1,6 km/h (1 Bft)
03.07.2018 02:33 13,3 C 89 % 1017,1 hPa 0,0 l/m 0,0 km/h (0 Bft) N-NW 344 0 min 0 W/m 11,5 C 13,3 C 0,0 km/h (0 Bft)
03.07.2018 02:36 13,2 C 89 % 1017,0 hPa 0,0 l/m 1,4 km/h (1 Bft) N-NW 344 0 min 0 W/m 11,4 C 13,2 C 4,8 km/h (1 Bft)
03.07.2018 02:39 13,2 C 89 % 1017,0 hPa 0,0 l/m 2,1 km/h (1 Bft) N-NW 344 0 min 0 W/m 11,4 C 13,2 C 4,8 km/h (1 Bft)
03.07.2018 02:42 13,1 C 89 % 1017,1 hPa 0,0 l/m 2,9 km/h (1 Bft) N-NW 344 0 min 0 W/m 11,3 C 13,1 C 6,4 km/h (2 Bft)
03.07.2018 02:45 13,1 C 89 % 1017,1 hPa 0,0 l/m 3,0 km/h (1 Bft) N-NW 341 0 min 0 W/m 11,3 C 13,1 C 6,4 km/h (2 Bft)
03.07.2018 02:48 13,3 C 90 % 1017,1 hPa 0,0 l/m 3,3 km/h (1 Bft) N-NW 341 0 min 0 W/m 11,7 C 13,3 C 8,0 km/h (2 Bft)
03.07.2018 02:51 13,5 C 90 % 1017,1 hPa 0,0 l/m 3,5 km/h (1 Bft) N-NW 341 0 min 0 W/m 11,9 C 13,5 C 6,4 km/h (2 Bft)
03.07.2018 02:54 13,7 C 90 % 1017,1 hPa 0,0 l/m 4,0 km/h (1 Bft) N-NW 327 0 min 0 W/m 12,1 C 13,7 C 9,7 km/h (2 Bft)
03.07.2018 02:57 14,0 C 91 % 1017,0 hPa 0,0 l/m 4,1 km/h (1 Bft) NW 325 0 min 0 W/m 12,6 C 14,0 C 8,0 km/h (2 Bft)
03.07.2018 03:00 14,2 C 91 % 1017,0 hPa 0,0 l/m 5,2 km/h (1 Bft) NW 325 0 min 0 W/m 12,8 C 14,2 C 8,0 km/h (2 Bft)
03.07.2018 03:03 14,3 C 91 % 1017,0 hPa 0,0 l/m 5,0 km/h (1 Bft) N-NW 330 0 min 0 W/m 12,8 C 14,3 C 8,0 km/h (2 Bft)
03.07.2018 03:06 14,5 C 91 % 1017,0 hPa 0,0 l/m 4,4 km/h (1 Bft) NW 320 0 min 0 W/m 13,0 C 14,5 C 9,7 km/h (2 Bft)
03.07.2018 03:09 14,6 C 91 % 1017,0 hPa 0,0 l/m 3,8 km/h (1 Bft) N-NW 344 0 min 0 W/m 13,1 C 14,6 C 8,0 km/h (2 Bft)
03.07.2018 03:12 14,8 C 91 % 1017,1 hPa 0,0 l/m 4,2 km/h (1 Bft) N-NW 336 0 min 0 W/m 13,3 C 14,8 C 9,7 km/h (2 Bft)
03.07.2018 03:15 14,9 C 91 % 1017,0 hPa 0,0 l/m 3,6 km/h (1 Bft) N-NW 328 0 min 0 W/m 13,4 C 14,9 C 8,0 km/h (2 Bft)
03.07.2018 03:18 15,0 C 92 % 1017,0 hPa 0,0 l/m 4,1 km/h (1 Bft) N-NW 341 0 min 0 W/m 13,7 C 15,0 C 8,0 km/h (2 Bft)
03.07.2018 03:21 15,1 C 91 % 1017,0 hPa 0,0 l/m 4,3 km/h (1 Bft) N-NW 338 0 min 0 W/m 13,6 C 15,1 C 8,0 km/h (2 Bft)
03.07.2018 03:24 15,2 C 91 % 1017,0 hPa 0,0 l/m 4,2 km/h (1 Bft) N-NW 338 0 min 0 W/m 13,7 C 15,2 C 6,4 km/h (2 Bft)
03.07.2018 03:27 15,3 C 92 % 1017,1 hPa 0,0 l/m 3,6 km/h (1 Bft) N-NW 336 0 min 0 W/m 14,0 C 15,3 C 6,4 km/h (2 Bft)
03.07.2018 03:30 15,4 C 92 % 1017,0 hPa 0,0 l/m 3,6 km/h (1 Bft) N-NW 332 0 min 0 W/m 14,1 C 15,4 C 6,4 km/h (2 Bft)
03.07.2018 03:33 15,4 C 92 % 1017,0 hPa 0,0 l/m 2,9 km/h (1 Bft) N-NW 332 0 min 0 W/m 14,1 C 15,4 C 4,8 km/h (1 Bft)
03.07.2018 03:36 15,5 C 92 % 1017,1 hPa 0,0 l/m 4,3 km/h (1 Bft) N-NW 331 0 min 0 W/m 14,2 C 15,5 C 8,0 km/h (2 Bft)
03.07.2018 03:39 15,6 C 91 % 1017,1 hPa 0,0 l/m 2,4 km/h (1 Bft) N-NW 331 0 min 0 W/m 14,1 C 15,6 C 6,4 km/h (2 Bft)
03.07.2018 03:42 15,6 C 91 % 1017,1 hPa 0,0 l/m 2,3 km/h (1 Bft) N-NW 331 0 min 0 W/m 14,1 C 15,6 C 6,4 km/h (2 Bft)
03.07.2018 03:45 15,6 C 92 % 1017,0 hPa 0,0 l/m 2,6 km/h (1 Bft) N-NW 330 0 min 0 W/m 14,3 C 15,6 C 6,4 km/h (2 Bft)
03.07.2018 03:48 15,5 C 91 % 1017,0 hPa 0,0 l/m 3,5 km/h (1 Bft) N-NW 330 0 min 0 W/m 14,0 C 15,5 C 6,4 km/h (2 Bft)
03.07.2018 03:51 15,5 C 91 % 1017,0 hPa 0,0 l/m 3,3 km/h (1 Bft) N-NW 331 0 min 0 W/m 14,0 C 15,5 C 6,4 km/h (2 Bft)
03.07.2018 03:54 15,6 C 92 % 1017,0 hPa 0,0 l/m 4,5 km/h (1 Bft) N-NW 328 0 min 0 W/m 14,3 C 15,6 C 8,0 km/h (2 Bft)
03.07.2018 03:57 15,6 C 92 % 1017,0 hPa 0,0 l/m 4,6 km/h (1 Bft) NW 323 0 min 0 W/m 14,3 C 15,6 C 11,3 km/h (2 Bft)
03.07.2018 04:00 15,6 C 92 % 1017,0 hPa 0,0 l/m 1,9 km/h (1 Bft) NW 323 0 min 0 W/m 14,3 C 15,6 C 4,8 km/h (1 Bft)
03.07.2018 04:03 15,5 C 92 % 1017,0 hPa 0,0 l/m 3,0 km/h (1 Bft) NW 323 0 min 0 W/m 14,2 C 15,5 C 4,8 km/h (1 Bft)
03.07.2018 04:06 15,5 C 92 % 1017,0 hPa 0,0 l/m 3,7 km/h (1 Bft) N 349 0 min 0 W/m 14,2 C 15,5 C 12,9 km/h (3 Bft)
03.07.2018 04:09 15,6 C 92 % 1017,0 hPa 0,0 l/m 4,7 km/h (1 Bft) N-NW 336 0 min 0 W/m 14,3 C 15,6 C 12,9 km/h (3 Bft)
03.07.2018 04:12 15,6 C 92 % 1017,0 hPa 0,0 l/m 3,4 km/h (1 Bft) N 350 0 min 0 W/m 14,3 C 15,6 C 8,0 km/h (2 Bft)
03.07.2018 04:15 15,6 C 92 % 1016,9 hPa 0,0 l/m 3,9 km/h (1 Bft) N-NW 327 0 min 0 W/m 14,3 C 15,6 C 9,7 km/h (2 Bft)
03.07.2018 04:18 15,6 C 92 % 1016,9 hPa 0,0 l/m 4,1 km/h (1 Bft) N 350 0 min 0 W/m 14,3 C 15,6 C 9,7 km/h (2 Bft)
03.07.2018 04:21 15,5 C 91 % 1016,9 hPa 0,0 l/m 3,3 km/h (1 Bft) N 350 0 min 0 W/m 14,0 C 15,5 C 6,4 km/h (2 Bft)
03.07.2018 04:24 15,4 C 91 % 1016,9 hPa 0,0 l/m 2,0 km/h (1 Bft) N 350 0 min 0 W/m 13,9 C 15,4 C 6,4 km/h (2 Bft)
03.07.2018 04:27 15,4 C 91 % 1016,9 hPa 0,0 l/m 4,6 km/h (1 Bft) N-NW 340 0 min 0 W/m 13,9 C 15,4 C 9,7 km/h (2 Bft)
03.07.2018 04:30 15,4 C 91 % 1016,8 hPa 0,0 l/m 4,0 km/h (1 Bft) N-NW 337 0 min 0 W/m 13,9 C 15,4 C 8,0 km/h (2 Bft)
03.07.2018 04:33 15,4 C 91 % 1016,9 hPa 0,0 l/m 3,8 km/h (1 Bft) N-NW 346 0 min 0 W/m 13,9 C 15,4 C 6,4 km/h (2 Bft)
03.07.2018 04:36 15,4 C 91 % 1016,9 hPa 0,0 l/m 4,3 km/h (1 Bft) N 351 0 min 0 W/m 13,9 C 15,4 C 8,0 km/h (2 Bft)
03.07.2018 04:39 15,4 C 91 % 1016,8 hPa 0,0 l/m 3,8 km/h (1 Bft) N-NW 335 0 min 0 W/m 13,9 C 15,4 C 12,9 km/h (3 Bft)
03.07.2018 04:42 15,4 C 90 % 1016,8 hPa 0,0 l/m 3,8 km/h (1 Bft) N 355 0 min 0 W/m 13,8 C 15,4 C 12,9 km/h (3 Bft)
03.07.2018 04:45 15,4 C 90 % 1016,8 hPa 0,0 l/m 6,4 km/h (2 Bft) N 11 0 min 0 W/m 13,8 C 15,4 C 12,9 km/h (3 Bft)
03.07.2018 04:48 15,4 C 89 % 1016,9 hPa 0,0 l/m 5,4 km/h (2 Bft) NW 313 0 min 0 W/m 13,6 C 15,4 C 9,7 km/h (2 Bft)
03.07.2018 04:51 15,4 C 88 % 1016,9 hPa 0,0 l/m 3,5 km/h (1 Bft) N-NO 24 0 min 0 W/m 13,4 C 15,4 C 12,9 km/h (3 Bft)
03.07.2018 04:54 15,4 C 88 % 1016,8 hPa 0,0 l/m 4,1 km/h (1 Bft) N-NW 345 0 min 0 W/m 13,4 C 15,4 C 9,7 km/h (2 Bft)
03.07.2018 04:57 15,4 C 87 % 1016,8 hPa 0,0 l/m 4,9 km/h (1 Bft) N 355 0 min 0 W/m 13,2 C 15,4 C 8,0 km/h (2 Bft)
03.07.2018 05:00 15,6 C 87 % 1016,8 hPa 0,0 l/m 5,8 km/h (2 Bft) NW 326 0 min 0 W/m 13,4 C 15,6 C 9,7 km/h (2 Bft)
03.07.2018 05:03 15,7 C 87 % 1016,9 hPa 0,0 l/m 6,2 km/h (2 Bft) N-NW 336 0 min 0 W/m 13,5 C 15,7 C 14,5 km/h (3 Bft)
03.07.2018 05:06 15,9 C 87 % 1016,8 hPa 0,0 l/m 4,4 km/h (1 Bft) N 360 0 min 0 W/m 13,7 C 15,9 C 8,0 km/h (2 Bft)
03.07.2018 05:09 16,0 C 87 % 1016,8 hPa 0,0 l/m 5,8 km/h (2 Bft) NW 317 0 min 5 W/m 13,8 C 16,0 C 16,1 km/h (3 Bft)
03.07.2018 05:12 16,1 C 88 % 1016,8 hPa 0,0 l/m 6,2 km/h (2 Bft) N-NW 330 0 min 5 W/m 14,1 C 16,1 C 14,5 km/h (3 Bft)
03.07.2018 05:15 16,2 C 88 % 1016,8 hPa 0,0 l/m 6,2 km/h (2 Bft) N-NW 336 0 min 5 W/m 14,2 C 16,2 C 12,9 km/h (3 Bft)
03.07.2018 05:18 16,2 C 88 % 1016,8 hPa 0,0 l/m 6,4 km/h (2 Bft) N-NW 333 0 min 5 W/m 14,2 C 16,2 C 14,5 km/h (3 Bft)
03.07.2018 05:21 16,2 C 87 % 1016,8 hPa 0,0 l/m 4,1 km/h (1 Bft) N-NW 344 0 min 7 W/m 14,0 C 16,2 C 8,0 km/h (2 Bft)
03.07.2018 05:24 16,2 C 87 % 1016,8 hPa 0,0 l/m 5,5 km/h (2 Bft) N-NW 344 0 min 7 W/m 14,0 C 16,2 C 9,7 km/h (2 Bft)
03.07.2018 05:27 16,2 C 87 % 1016,7 hPa 0,0 l/m 5,0 km/h (1 Bft) N 350 0 min 7 W/m 14,0 C 16,2 C 9,7 km/h (2 Bft)
03.07.2018 05:30 16,2 C 87 % 1016,7 hPa 0,0 l/m 5,4 km/h (2 Bft) N-NW 340 0 min 7 W/m 14,0 C 16,2 C 9,7 km/h (2 Bft)
03.07.2018 05:33 16,2 C 87 % 1016,7 hPa 0,0 l/m 4,0 km/h (1 Bft) N-NW 348 0 min 9 W/m 14,0 C 16,2 C 8,0 km/h (2 Bft)
03.07.2018 05:36 16,2 C 87 % 1016,7 hPa 0,0 l/m 4,5 km/h (1 Bft) N-NW 345 0 min 9 W/m 14,0 C 16,2 C 8,0 km/h (2 Bft)
03.07.2018 05:39 16,1 C 87 % 1016,7 hPa 0,0 l/m 5,0 km/h (1 Bft) N-NW 344 0 min 9 W/m 13,9 C 16,1 C 9,7 km/h (2 Bft)
03.07.2018 05:42 16,1 C 87 % 1016,7 hPa 0,0 l/m 4,2 km/h (1 Bft) N 355 0 min 9 W/m 13,9 C 16,1 C 9,7 km/h (2 Bft)
03.07.2018 05:45 16,1 C 87 % 1016,6 hPa 0,0 l/m 6,4 km/h (2 Bft) N 350 0 min 11 W/m 13,9 C 16,1 C 12,9 km/h (3 Bft)
03.07.2018 05:48 16,1 C 86 % 1016,6 hPa 0,0 l/m 4,3 km/h (1 Bft) N-NW 340 0 min 11 W/m 13,8 C 16,1 C 8,0 km/h (2 Bft)
03.07.2018 05:51 16,1 C 86 % 1016,6 hPa 0,0 l/m 4,0 km/h (1 Bft) N-NW 344 0 min 11 W/m 13,8 C 16,1 C 9,7 km/h (2 Bft)
03.07.2018 05:54 16,1 C 86 % 1016,7 hPa 0,0 l/m 3,5 km/h (1 Bft) N-NW 340 0 min 11 W/m 13,8 C 16,1 C 9,7 km/h (2 Bft)
03.07.2018 05:57 16,1 C 86 % 1016,7 hPa 0,0 l/m 4,7 km/h (1 Bft) N-NW 345 0 min 12 W/m 13,8 C 16,1 C 16,1 km/h (3 Bft)
03.07.2018 06:00 16,1 C 86 % 1016,7 hPa 0,0 l/m 5,6 km/h (2 Bft) N 351 0 min 12 W/m 13,8 C 16,1 C 12,9 km/h (3 Bft)
03.07.2018 06:03 16,1 C 86 % 1016,7 hPa 0,0 l/m 5,1 km/h (1 Bft) N-NW 344 0 min 12 W/m 13,8 C 16,1 C 12,9 km/h (3 Bft)
03.07.2018 06:06 16,2 C 86 % 1016,7 hPa 0,0 l/m 3,5 km/h (1 Bft) N-NW 344 0 min 12 W/m 13,9 C 16,2 C 6,4 km/h (2 Bft)
03.07.2018 06:09 16,2 C 86 % 1016,6 hPa 0,0 l/m 4,9 km/h (1 Bft) N-NW 331 0 min 14 W/m 13,9 C 16,2 C 9,7 km/h (2 Bft)
03.07.2018 06:12 16,2 C 86 % 1016,6 hPa 0,0 l/m 4,6 km/h (1 Bft) N-NW 337 0 min 14 W/m 13,9 C 16,2 C 9,7 km/h (2 Bft)
03.07.2018 06:15 16,2 C 86 % 1016,6 hPa 0,0 l/m 4,2 km/h (1 Bft) N-NW 338 0 min 14 W/m 13,9 C 16,2 C 8,0 km/h (2 Bft)
03.07.2018 06:18 16,2 C 86 % 1016,6 hPa 0,0 l/m 3,9 km/h (1 Bft) N-NW 338 0 min 14 W/m 13,9 C 16,2 C 8,0 km/h (2 Bft)
03.07.2018 06:21 16,2 C 87 % 1016,6 hPa 0,0 l/m 3,8 km/h (1 Bft) N-NW 338 0 min 14 W/m 14,0 C 16,2 C 6,4 km/h (2 Bft)
03.07.2018 06:24 16,2 C 87 % 1016,6 hPa 0,0 l/m 5,5 km/h (2 Bft) N 349 0 min 16 W/m 14,0 C 16,2 C 9,7 km/h (2 Bft)
03.07.2018 06:27 16,2 C 87 % 1016,6 hPa 0,0 l/m 3,3 km/h (1 Bft) N 349 0 min 16 W/m 14,0 C 16,2 C 6,4 km/h (2 Bft)
03.07.2018 06:30 16,1 C 87 % 1016,6 hPa 0,0 l/m 4,7 km/h (1 Bft) N-NW 337 0 min 16 W/m 13,9 C 16,1 C 12,9 km/h (3 Bft)
03.07.2018 06:33 16,1 C 87 % 1016,6 hPa 0,0 l/m 4,3 km/h (1 Bft) N-NW 334 0 min 16 W/m 13,9 C 16,1 C 8,0 km/h (2 Bft)
03.07.2018 06:36 16,2 C 87 % 1016,7 hPa 0,0 l/m 4,7 km/h (1 Bft) N-NW 338 0 min 16 W/m 14,0 C 16,2 C 6,4 km/h (2 Bft)
03.07.2018 06:39 16,3 C 87 % 1016,6 hPa 0,0 l/m 3,8 km/h (1 Bft) N-NW 333 0 min 18 W/m 14,1 C 16,3 C 8,0 km/h (2 Bft)
03.07.2018 06:42 16,3 C 87 % 1016,6 hPa 0,0 l/m 3,8 km/h (1 Bft) N-NW 333 0 min 18 W/m 14,1 C 16,3 C 8,0 km/h (2 Bft)
03.07.2018 06:45 16,3 C 87 % 1016,6 hPa 0,0 l/m 4,0 km/h (1 Bft) N-NW 336 0 min 18 W/m 14,1 C 16,3 C 9,7 km/h (2 Bft)
03.07.2018 06:48 16,3 C 87 % 1016,7 hPa 0,0 l/m 4,8 km/h (1 Bft) N-NW 344 0 min 18 W/m 14,1 C 16,3 C 9,7 km/h (2 Bft)
03.07.2018 06:51 16,3 C 87 % 1016,7 hPa 0,0 l/m 3,9 km/h (1 Bft) N-NW 344 0 min 19 W/m 14,1 C 16,3 C 6,4 km/h (2 Bft)
03.07.2018 06:54 16,3 C 87 % 1016,6 hPa 0,0 l/m 4,6 km/h (1 Bft) N 351 0 min 19 W/m 14,1 C 16,3 C 9,7 km/h (2 Bft)
03.07.2018 06:57 16,4 C 87 % 1016,6 hPa 0,0 l/m 2,9 km/h (1 Bft) N 355 0 min 19 W/m 14,2 C 16,4 C 4,8 km/h (1 Bft)
03.07.2018 07:00 16,4 C 87 % 1016,6 hPa 0,0 l/m 3,2 km/h (1 Bft) N 355 0 min 21 W/m 14,2 C 16,4 C 6,4 km/h (2 Bft)
03.07.2018 07:03 16,4 C 87 % 1016,6 hPa 0,0 l/m 5,0 km/h (1 Bft) N-NW 345 0 min 21 W/m 14,2 C 16,4 C 12,9 km/h (3 Bft)
03.07.2018 07:06 16,4 C 87 % 1016,6 hPa 0,0 l/m 5,0 km/h (1 Bft) N-NW 345 0 min 21 W/m 14,2 C 16,4 C 8,0 km/h (2 Bft)
03.07.2018 07:09 16,6 C 87 % 1016,6 hPa 0,0 l/m 4,1 km/h (1 Bft) N-NW 342 0 min 25 W/m 14,4 C 16,6 C 9,7 km/h (2 Bft)
03.07.2018 07:12 16,7 C 87 % 1016,6 hPa 0,0 l/m 5,0 km/h (1 Bft) N-NW 346 0 min 23 W/m 14,5 C 16,7 C 8,0 km/h (2 Bft)
03.07.2018 07:15 16,7 C 87 % 1016,6 hPa 0,0 l/m 4,6 km/h (1 Bft) N-NW 345 0 min 23 W/m 14,5 C 16,7 C 9,7 km/h (2 Bft)
03.07.2018 07:18 16,8 C 87 % 1016,6 hPa 0,0 l/m 6,4 km/h (2 Bft) N-NW 338 0 min 32 W/m 14,6 C 16,8 C 9,7 km/h (2 Bft)
03.07.2018 07:21 16,9 C 87 % 1016,7 hPa 0,0 l/m 6,9 km/h (2 Bft) N-NW 348 0 min 35 W/m 14,7 C 16,7 C 12,9 km/h (3 Bft)
03.07.2018 07:24 16,9 C 87 % 1016,7 hPa 0,0 l/m 5,1 km/h (1 Bft) NW 325 0 min 33 W/m 14,7 C 16,9 C 9,7 km/h (2 Bft)
03.07.2018 07:27 17,0 C 87 % 1016,6 hPa 0,0 l/m 4,9 km/h (1 Bft) N-NW 339 0 min 51 W/m 14,8 C 17,0 C 12,9 km/h (3 Bft)
03.07.2018 07:30 17,1 C 87 % 1016,7 hPa 0,0 l/m 7,4 km/h (2 Bft) N 360 0 min 47 W/m 14,9 C 16,6 C 14,5 km/h (3 Bft)
03.07.2018 07:33 17,2 C 87 % 1016,7 hPa 0,0 l/m 5,8 km/h (2 Bft) N 5 0 min 44 W/m 15,0 C 17,2 C 9,7 km/h (2 Bft)
03.07.2018 07:36 17,2 C 87 % 1016,7 hPa 0,0 l/m 3,0 km/h (1 Bft) N 5 0 min 54 W/m 15,0 C 17,2 C 8,0 km/h (2 Bft)
03.07.2018 07:39 17,1 C 87 % 1016,8 hPa 0,0 l/m 0,9 km/h (0 Bft) N 360 0 min 51 W/m 14,9 C 17,1 C 4,8 km/h (1 Bft)
03.07.2018 07:42 17,1 C 87 % 1016,9 hPa 0,0 l/m 3,6 km/h (1 Bft) N-NO 15 0 min 69 W/m 14,9 C 17,1 C 8,0 km/h (2 Bft)
03.07.2018 07:45 17,1 C 87 % 1016,8 hPa 0,0 l/m 2,9 km/h (1 Bft) N-NO 15 0 min 56 W/m 14,9 C 17,1 C 6,4 km/h (2 Bft)
03.07.2018 07:48 17,1 C 87 % 1016,8 hPa 0,0 l/m 2,5 km/h (1 Bft) N-NW 336 0 min 67 W/m 14,9 C 17,1 C 9,7 km/h (2 Bft)
03.07.2018 07:51 17,2 C 87 % 1016,8 hPa 0,0 l/m 5,9 km/h (2 Bft) N-NW 340 0 min 53 W/m 15,0 C 17,2 C 12,9 km/h (3 Bft)
03.07.2018 07:54 17,2 C 87 % 1016,8 hPa 0,0 l/m 4,3 km/h (1 Bft) NW 316 0 min 62 W/m 15,0 C 17,2 C 9,7 km/h (2 Bft)
03.07.2018 07:57 17,2 C 87 % 1016,8 hPa 0,0 l/m 4,6 km/h (1 Bft) N-NW 339 0 min 44 W/m 15,0 C 17,2 C 8,0 km/h (2 Bft)
03.07.2018 08:00 17,2 C 87 % 1016,9 hPa 0,0 l/m 5,7 km/h (2 Bft) N-NW 338 0 min 33 W/m 15,0 C 17,2 C 9,7 km/h (2 Bft)
03.07.2018 08:03 17,2 C 86 % 1016,9 hPa 0,0 l/m 3,5 km/h (1 Bft) N-NW 332 0 min 40 W/m 14,8 C 17,2 C 9,7 km/h (2 Bft)
03.07.2018 08:06 17,2 C 86 % 1016,9 hPa 0,0 l/m 5,5 km/h (2 Bft) N-NW 329 0 min 40 W/m 14,8 C 17,2 C 12,9 km/h (3 Bft)
03.07.2018 08:09 17,3 C 86 % 1016,9 hPa 0,0 l/m 5,7 km/h (2 Bft) N-NW 343 0 min 44 W/m 14,9 C 17,3 C 9,7 km/h (2 Bft)
03.07.2018 08:12 17,3 C 86 % 1016,9 hPa 0,0 l/m 6,2 km/h (2 Bft) N-NW 345 0 min 42 W/m 14,9 C 17,3 C 9,7 km/h (2 Bft)
03.07.2018 08:15 17,3 C 86 % 1016,9 hPa 0,0 l/m 5,6 km/h (2 Bft) N-NW 337 0 min 42 W/m 14,9 C 17,3 C 9,7 km/h (2 Bft)
03.07.2018 08:18 17,3 C 86 % 1016,8 hPa 0,0 l/m 5,0 km/h (1 Bft) N-NW 344 0 min 32 W/m 14,9 C 17,3 C 9,7 km/h (2 Bft)
03.07.2018 08:21 17,3 C 86 % 1016,8 hPa 0,0 l/m 4,7 km/h (1 Bft) N-NW 342 0 min 40 W/m 14,9 C 17,3 C 9,7 km/h (2 Bft)
03.07.2018 08:24 17,4 C 86 % 1016,8 hPa 0,0 l/m 4,9 km/h (1 Bft) N-NW 341 0 min 70 W/m 15,0 C 17,4 C 8,0 km/h (2 Bft)
03.07.2018 08:27 17,5 C 85 % 1016,8 hPa 0,0 l/m 6,8 km/h (2 Bft) N-NW 332 0 min 83 W/m 14,9 C 17,3 C 12,9 km/h (3 Bft)
03.07.2018 08:30 17,7 C 85 % 1016,8 hPa 0,0 l/m 7,3 km/h (2 Bft) N-NW 331 3 min 390 W/m 15,1 C 17,3 C 12,9 km/h (3 Bft)
03.07.2018 08:33 17,8 C 84 % 1016,9 hPa 0,0 l/m 6,1 km/h (2 Bft) W-NW 296 3 min 403 W/m 15,1 C 17,8 C 14,5 km/h (3 Bft)
03.07.2018 08:36 17,9 C 84 % 1016,9 hPa 0,0 l/m 6,4 km/h (2 Bft) NW 323 3 min 408 W/m 15,2 C 17,9 C 12,9 km/h (3 Bft)
03.07.2018 08:39 18,1 C 84 % 1016,9 hPa 0,0 l/m 4,6 km/h (1 Bft) N 355 3 min 413 W/m 15,4 C 18,1 C 8,0 km/h (2 Bft)
03.07.2018 08:42 18,1 C 83 % 1016,9 hPa 0,0 l/m 4,9 km/h (1 Bft) NW 326 3 min 381 W/m 15,2 C 18,1 C 9,7 km/h (2 Bft)
03.07.2018 08:45 18,2 C 82 % 1016,9 hPa 0,0 l/m 7,8 km/h (2 Bft) N-NW 340 3 min 432 W/m 15,1 C 17,6 C 14,5 km/h (3 Bft)
03.07.2018 08:48 18,2 C 82 % 1016,9 hPa 0,0 l/m 6,7 km/h (2 Bft) NW 304 3 min 464 W/m 15,1 C 18,1 C 12,9 km/h (3 Bft)
03.07.2018 08:51 18,4 C 82 % 1016,9 hPa 0,0 l/m 6,8 km/h (2 Bft) N-NW 342 3 min 512 W/m 15,3 C 18,2 C 12,9 km/h (3 Bft)
03.07.2018 08:54 18,3 C 80 % 1017,0 hPa 0,0 l/m 9,1 km/h (2 Bft) NW 325 3 min 508 W/m 14,8 C 17,1 C 16,1 km/h (3 Bft)
03.07.2018 08:57 18,3 C 80 % 1017,0 hPa 0,0 l/m 7,7 km/h (2 Bft) NW 316 3 min 454 W/m 14,8 C 17,7 C 16,1 km/h (3 Bft)
03.07.2018 09:00 18,4 C 81 % 1017,0 hPa 0,0 l/m 7,8 km/h (2 Bft) N-NW 328 3 min 517 W/m 15,1 C 17,8 C 14,5 km/h (3 Bft)
03.07.2018 09:03 18,7 C 80 % 1017,0 hPa 0,0 l/m 5,5 km/h (2 Bft) N-NW 344 3 min 564 W/m 15,2 C 18,7 C 14,5 km/h (3 Bft)
03.07.2018 09:06 18,7 C 80 % 1017,0 hPa 0,0 l/m 6,3 km/h (2 Bft) N-NW 331 3 min 591 W/m 15,2 C 18,7 C 12,9 km/h (3 Bft)
03.07.2018 09:09 18,8 C 79 % 1017,1 hPa 0,0 l/m 5,2 km/h (1 Bft) N-NW 339 3 min 599 W/m 15,1 C 18,8 C 11,3 km/h (2 Bft)
03.07.2018 09:12 19,1 C 78 % 1017,1 hPa 0,0 l/m 8,5 km/h (2 Bft) N-NW 344 3 min 619 W/m 15,2 C 18,2 C 16,1 km/h (3 Bft)
03.07.2018 09:15 19,0 C 78 % 1017,1 hPa 0,0 l/m 9,9 km/h (2 Bft) N-NW 327 3 min 638 W/m 15,1 C 17,6 C 16,1 km/h (3 Bft)
03.07.2018 09:18 19,1 C 78 % 1017,1 hPa 0,0 l/m 8,3 km/h (2 Bft) N-NW 348 3 min 592 W/m 15,2 C 18,3 C 12,9 km/h (3 Bft)
03.07.2018 09:21 19,2 C 78 % 1017,0 hPa 0,0 l/m 7,7 km/h (2 Bft) N-NW 329 3 min 673 W/m 15,3 C 18,6 C 14,5 km/h (3 Bft)
03.07.2018 09:24 19,3 C 77 % 1017,1 hPa 0,0 l/m 7,3 km/h (2 Bft) N-NW 327 0 min 306 W/m 15,2 C 18,9 C 14,5 km/h (3 Bft)
03.07.2018 09:27 19,3 C 75 % 1017,1 hPa 0,0 l/m 6,9 km/h (2 Bft) NW 326 0 min 264 W/m 14,8 C 19,1 C 12,9 km/h (3 Bft)
03.07.2018 09:30 19,1 C 77 % 1017,1 hPa 0,0 l/m 9,9 km/h (2 Bft) N 355 3 min 693 W/m 15,0 C 17,7 C 17,7 km/h (3 Bft)
03.07.2018 09:33 19,0 C 77 % 1017,1 hPa 0,0 l/m 10,7 km/h (2 Bft) N-NW 348 0 min 246 W/m 14,9 C 17,3 C 17,7 km/h (3 Bft)
03.07.2018 09:36 18,9 C 79 % 1017,2 hPa 0,0 l/m 9,1 km/h (2 Bft) W-NW 300 3 min 378 W/m 15,2 C 17,8 C 16,1 km/h (3 Bft)
03.07.2018 09:39 18,9 C 78 % 1017,2 hPa 0,0 l/m 8,3 km/h (2 Bft) N-NW 330 0 min 139 W/m 15,0 C 18,1 C 16,1 km/h (3 Bft)
03.07.2018 09:42 18,6 C 78 % 1017,3 hPa 0,0 l/m 8,6 km/h (2 Bft) W 278 0 min 171 W/m 14,7 C 17,6 C 16,1 km/h (3 Bft)
03.07.2018 09:45 18,4 C 79 % 1017,3 hPa 0,0 l/m 10,1 km/h (2 Bft) W-NW 296 0 min 118 W/m 14,7 C 16,8 C 20,9 km/h (4 Bft)
03.07.2018 09:48 18,2 C 79 % 1017,3 hPa 0,0 l/m 8,9 km/h (2 Bft) N-NW 335 0 min 149 W/m 14,5 C 17,1 C 14,5 km/h (3 Bft)
03.07.2018 09:51 18,1 C 80 % 1017,2 hPa 0,0 l/m 6,6 km/h (2 Bft) NW 315 0 min 144 W/m 14,6 C 18,0 C 14,5 km/h (3 Bft)
03.07.2018 09:54 18,2 C 81 % 1017,2 hPa 0,0 l/m 8,8 km/h (2 Bft) N-NW 347 3 min 610 W/m 14,9 C 17,1 C 19,3 km/h (3 Bft)
03.07.2018 09:57 18,6 C 79 % 1017,2 hPa 0,0 l/m 7,2 km/h (2 Bft) N-NW 328 3 min 555 W/m 14,9 C 18,2 C 14,5 km/h (3 Bft)
03.07.2018 10:00 18,8 C 78 % 1017,2 hPa 0,0 l/m 9,8 km/h (2 Bft) N-NW 327 0 min 278 W/m 14,9 C 17,4 C 17,7 km/h (3 Bft)
03.07.2018 10:03 18,8 C 78 % 1017,2 hPa 0,0 l/m 7,6 km/h (2 Bft) N-NO 15 3 min 668 W/m 14,9 C 18,3 C 16,1 km/h (3 Bft)
03.07.2018 10:06 18,9 C 77 % 1017,2 hPa 0,0 l/m 11,3 km/h (2 Bft) NW 322 3 min 568 W/m 14,8 C 17,0 C 19,3 km/h (3 Bft)
03.07.2018 10:09 19,1 C 77 % 1017,2 hPa 0,0 l/m 7,1 km/h (2 Bft) N 360 3 min 557 W/m 15,0 C 18,8 C 14,5 km/h (3 Bft)
03.07.2018 10:12 19,0 C 77 % 1017,2 hPa 0,0 l/m 9,8 km/h (2 Bft) N-NW 336 3 min 686 W/m 14,9 C 17,6 C 17,7 km/h (3 Bft)
03.07.2018 10:15 18,8 C 76 % 1017,3 hPa 0,0 l/m 12,0 km/h (2 Bft) NW 320 0 min 207 W/m 14,5 C 16,6 C 19,3 km/h (3 Bft)
03.07.2018 10:18 18,7 C 77 % 1017,3 hPa 0,0 l/m 9,2 km/h (2 Bft) N-NW 327 3 min 573 W/m 14,6 C 17,5 C 17,7 km/h (3 Bft)
03.07.2018 10:21 19,0 C 76 % 1017,3 hPa 0,0 l/m 7,3 km/h (2 Bft) N-NW 329 3 min 635 W/m 14,7 C 18,6 C 14,5 km/h (3 Bft)
03.07.2018 10:24 18,9 C 76 % 1017,3 hPa 0,0 l/m 9,8 km/h (2 Bft) N 355 0 min 214 W/m 14,6 C 17,5 C 17,7 km/h (3 Bft)
03.07.2018 10:27 19,0 C 76 % 1017,3 hPa 0,0 l/m 7,2 km/h (2 Bft) W 275 0 min 267 W/m 14,7 C 18,6 C 14,5 km/h (3 Bft)
03.07.2018 10:30 19,1 C 75 % 1017,4 hPa 0,0 l/m 7,4 km/h (2 Bft) W-NW 302 0 min 267 W/m 14,6 C 18,7 C 16,1 km/h (3 Bft)
03.07.2018 10:33 19,0 C 75 % 1017,4 hPa 0,0 l/m 4,7 km/h (1 Bft) W-SW 257 3 min 540 W/m 14,5 C 19,0 C 14,5 km/h (3 Bft)
03.07.2018 10:36 19,0 C 75 % 1017,4 hPa 0,0 l/m 9,4 km/h (2 Bft) N-NW 342 3 min 687 W/m 14,5 C 17,8 C 20,9 km/h (4 Bft)
03.07.2018 10:39 19,3 C 75 % 1017,4 hPa 0,0 l/m 10,2 km/h (2 Bft) W-NW 286 3 min 807 W/m 14,8 C 17,8 C 17,7 km/h (3 Bft)
03.07.2018 10:42 19,3 C 74 % 1017,4 hPa 0,0 l/m 7,7 km/h (2 Bft) NW 309 3 min 420 W/m 14,5 C 18,7 C 16,1 km/h (3 Bft)
03.07.2018 10:45 19,4 C 74 % 1017,4 hPa 0,0 l/m 8,4 km/h (2 Bft) N-NW 330 3 min 775 W/m 14,6 C 18,6 C 17,7 km/h (3 Bft)
03.07.2018 10:48 19,5 C 73 % 1017,4 hPa 0,0 l/m 9,8 km/h (2 Bft) N 360 3 min 793 W/m 14,5 C 18,2 C 19,3 km/h (3 Bft)
03.07.2018 10:51 19,4 C 72 % 1017,3 hPa 0,0 l/m 10,4 km/h (2 Bft) N-NW 344 3 min 795 W/m 14,2 C 17,8 C 17,7 km/h (3 Bft)
03.07.2018 10:54 19,6 C 73 % 1017,3 hPa 0,0 l/m 10,5 km/h (2 Bft) N 355 3 min 784 W/m 14,6 C 18,0 C 17,7 km/h (3 Bft)
03.07.2018 10:57 19,7 C 72 % 1017,3 hPa 0,0 l/m 10,8 km/h (2 Bft) N-NW 344 3 min 817 W/m 14,5 C 18,0 C 19,3 km/h (3 Bft)
03.07.2018 11:00 19,7 C 71 % 1017,3 hPa 0,0 l/m 9,0 km/h (2 Bft) N 355 3 min 819 W/m 14,3 C 18,7 C 16,1 km/h (3 Bft)
03.07.2018 11:03 19,7 C 71 % 1017,3 hPa 0,0 l/m 10,8 km/h (2 Bft) NW 313 3 min 777 W/m 14,3 C 18,0 C 19,3 km/h (3 Bft)
03.07.2018 11:06 19,7 C 71 % 1017,4 hPa 0,0 l/m 11,2 km/h (2 Bft) NW 313 3 min 765 W/m 14,3 C 17,9 C 19,3 km/h (3 Bft)
03.07.2018 11:09 19,7 C 71 % 1017,4 hPa 0,0 l/m 10,1 km/h (2 Bft) N-NW 330 3 min 636 W/m 14,3 C 18,3 C 20,9 km/h (4 Bft)
03.07.2018 11:12 19,6 C 71 % 1017,4 hPa 0,0 l/m 10,5 km/h (2 Bft) NW 315 3 min 719 W/m 14,2 C 18,0 C 17,7 km/h (3 Bft)
03.07.2018 11:15 19,4 C 71 % 1017,4 hPa 0,0 l/m 8,9 km/h (2 Bft) N-NW 347 3 min 675 W/m 14,0 C 18,4 C 16,1 km/h (3 Bft)
03.07.2018 11:18 19,6 C 71 % 1017,4 hPa 0,0 l/m 6,8 km/h (2 Bft) N 349 3 min 751 W/m 14,2 C 19,4 C 14,5 km/h (3 Bft)
03.07.2018 11:21 19,8 C 70 % 1017,4 hPa 0,0 l/m 8,1 km/h (2 Bft) N-NW 327 3 min 840 W/m 14,2 C 19,1 C 17,7 km/h (3 Bft)
03.07.2018 11:24 19,6 C 70 % 1017,4 hPa 0,0 l/m 8,6 km/h (2 Bft) N 355 3 min 559 W/m 14,0 C 18,7 C 17,7 km/h (3 Bft)
03.07.2018 11:27 19,5 C 70 % 1017,4 hPa 0,0 l/m 7,9 km/h (2 Bft) W 280 3 min 752 W/m 13,9 C 18,9 C 14,5 km/h (3 Bft)
03.07.2018 11:30 19,9 C 70 % 1017,4 hPa 0,0 l/m 5,4 km/h (2 Bft) W-NW 284 3 min 893 W/m 14,3 C 19,9 C 14,5 km/h (3 Bft)
03.07.2018 11:33 20,2 C 68 % 1017,4 hPa 0,0 l/m 9,4 km/h (2 Bft) NW 318 0 min 381 W/m 14,1 C 19,1 C 16,1 km/h (3 Bft)
03.07.2018 11:36 20,0 C 70 % 1017,5 hPa 0,0 l/m 7,0 km/h (2 Bft) N-NW 344 3 min 860 W/m 14,4 C 19,8 C 14,5 km/h (3 Bft)
03.07.2018 11:39 20,2 C 69 % 1017,4 hPa 0,0 l/m 5,1 km/h (1 Bft) N-NW 336 3 min 900 W/m 14,3 C 20,2 C 9,7 km/h (2 Bft)
03.07.2018 11:42 20,1 C 68 % 1017,4 hPa 0,0 l/m 10,7 km/h (2 Bft) NW 317 3 min 469 W/m 14,0 C 18,5 C 17,7 km/h (3 Bft)
03.07.2018 11:45 20,1 C 69 % 1017,3 hPa 0,0 l/m 9,4 km/h (2 Bft) W 263 3 min 904 W/m 14,2 C 19,0 C 17,7 km/h (3 Bft)
03.07.2018 11:48 20,4 C 68 % 1017,4 hPa 0,0 l/m 5,2 km/h (1 Bft) W 279 3 min 882 W/m 14,3 C 20,4 C 12,9 km/h (3 Bft)
03.07.2018 11:51 20,1 C 67 % 1017,3 hPa 0,0 l/m 9,2 km/h (2 Bft) N-NW 342 3 min 889 W/m 13,8 C 19,0 C 14,5 km/h (3 Bft)
03.07.2018 11:54 20,1 C 67 % 1017,3 hPa 0,0 l/m 9,2 km/h (2 Bft) N 355 3 min 856 W/m 13,8 C 19,0 C 17,7 km/h (3 Bft)
03.07.2018 11:57 20,1 C 68 % 1017,3 hPa 0,0 l/m 9,7 km/h (2 Bft) NW 317 3 min 842 W/m 14,0 C 18,8 C 16,1 km/h (3 Bft)
03.07.2018 12:00 20,2 C 68 % 1017,3 hPa 0,0 l/m 8,7 km/h (2 Bft) W-NW 284 3 min 789 W/m 14,1 C 19,3 C 16,1 km/h (3 Bft)
03.07.2018 12:03 20,1 C 67 % 1017,3 hPa 0,0 l/m 10,1 km/h (2 Bft) NW 319 3 min 601 W/m 13,8 C 18,7 C 17,7 km/h (3 Bft)
03.07.2018 12:06 19,8 C 67 % 1017,4 hPa 0,0 l/m 10,0 km/h (2 Bft) NW 313 3 min 865 W/m 13,5 C 18,4 C 22,5 km/h (4 Bft)
03.07.2018 12:09 20,1 C 69 % 1017,3 hPa 0,0 l/m 7,7 km/h (2 Bft) N 355 3 min 875 W/m 14,2 C 19,6 C 17,7 km/h (3 Bft)
03.07.2018 12:12 20,6 C 68 % 1017,3 hPa 0,0 l/m 9,9 km/h (2 Bft) W-NW 290 3 min 786 W/m 14,5 C 19,3 C 16,1 km/h (3 Bft)
03.07.2018 12:15 20,3 C 67 % 1017,3 hPa 0,0 l/m 9,7 km/h (2 Bft) W-SW 246 3 min 756 W/m 14,0 C 19,1 C 17,7 km/h (3 Bft)
03.07.2018 12:18 20,3 C 67 % 1017,3 hPa 0,0 l/m 9,5 km/h (2 Bft) NW 312 3 min 735 W/m 14,0 C 19,1 C 17,7 km/h (3 Bft)
03.07.2018 12:21 20,6 C 67 % 1017,4 hPa 0,0 l/m 9,5 km/h (2 Bft) W-NW 302 3 min 726 W/m 14,3 C 19,5 C 17,7 km/h (3 Bft)
03.07.2018 12:24 20,8 C 65 % 1017,3 hPa 0,0 l/m 7,4 km/h (2 Bft) N 355 3 min 673 W/m 14,0 C 20,4 C 17,7 km/h (3 Bft)
03.07.2018 12:27 20,8 C 65 % 1017,3 hPa 0,0 l/m 9,3 km/h (2 Bft) N-NW 338 3 min 663 W/m 14,0 C 19,7 C 19,3 km/h (3 Bft)
03.07.2018 12:30 20,9 C 64 % 1017,4 hPa 0,0 l/m 6,7 km/h (2 Bft) N-NW 346 3 min 649 W/m 13,8 C 20,8 C 14,5 km/h (3 Bft)
03.07.2018 12:33 20,8 C 64 % 1017,4 hPa 0,0 l/m 10,8 km/h (2 Bft) N 355 3 min 752 W/m 13,7 C 19,3 C 17,7 km/h (3 Bft)
03.07.2018 12:36 20,7 C 64 % 1017,3 hPa 0,0 l/m 8,0 km/h (2 Bft) NW 317 3 min 661 W/m 13,6 C 20,1 C 17,7 km/h (3 Bft)
03.07.2018 12:39 20,8 C 65 % 1017,3 hPa 0,0 l/m 8,2 km/h (2 Bft) N-NW 342 3 min 696 W/m 14,0 C 20,1 C 16,1 km/h (3 Bft)
03.07.2018 12:42 20,6 C 65 % 1017,3 hPa 0,0 l/m 7,3 km/h (2 Bft) N-NW 339 3 min 717 W/m 13,8 C 20,2 C 14,5 km/h (3 Bft)
03.07.2018 12:45 20,8 C 64 % 1017,3 hPa 0,0 l/m 9,8 km/h (2 Bft) NW 309 3 min 749 W/m 13,7 C 19,6 C 19,3 km/h (3 Bft)
03.07.2018 12:48 20,6 C 64 % 1017,2 hPa 0,0 l/m 8,7 km/h (2 Bft) N-NO 12 3 min 679 W/m 13,5 C 19,7 C 14,5 km/h (3 Bft)
03.07.2018 12:51 20,8 C 64 % 1017,2 hPa 0,0 l/m 6,1 km/h (2 Bft) W-NW 300 3 min 814 W/m 13,7 C 20,8 C 16,1 km/h (3 Bft)
03.07.2018 12:54 20,6 C 65 % 1017,2 hPa 0,0 l/m 8,5 km/h (2 Bft) N-NW 328 3 min 582 W/m 13,8 C 19,8 C 19,3 km/h (3 Bft)
03.07.2018 12:57 20,7 C 64 % 1017,2 hPa 0,0 l/m 7,4 km/h (2 Bft) W-SW 254 3 min 838 W/m 13,6 C 20,3 C 16,1 km/h (3 Bft)
03.07.2018 13:00 20,7 C 64 % 1017,2 hPa 0,0 l/m 6,6 km/h (2 Bft) W 280 3 min 874 W/m 13,6 C 20,6 C 17,7 km/h (3 Bft)
03.07.2018 13:03 20,7 C 66 % 1017,2 hPa 0,0 l/m 10,2 km/h (2 Bft) N-NW 342 0 min 339 W/m 14,1 C 19,4 C 19,3 km/h (3 Bft)
03.07.2018 13:06 20,6 C 65 % 1017,1 hPa 0,0 l/m 8,2 km/h (2 Bft) W-NW 296 3 min 886 W/m 13,8 C 19,9 C 17,7 km/h (3 Bft)
03.07.2018 13:09 20,9 C 65 % 1017,2 hPa 0,0 l/m 9,1 km/h (2 Bft) NW 322 3 min 881 W/m 14,1 C 19,9 C 19,3 km/h (3 Bft)
03.07.2018 13:12 20,4 C 66 % 1017,2 hPa 0,0 l/m 9,8 km/h (2 Bft) N-NW 338 3 min 861 W/m 13,8 C 19,1 C 14,5 km/h (3 Bft)
03.07.2018 13:15 20,7 C 66 % 1017,1 hPa 0,0 l/m 6,8 km/h (2 Bft) W-NW 298 3 min 860 W/m 14,1 C 20,5 C 14,5 km/h (3 Bft)
03.07.2018 13:18 20,8 C 65 % 1017,2 hPa 0,0 l/m 7,9 km/h (2 Bft) N-NW 338 3 min 861 W/m 14,0 C 20,2 C 19,3 km/h (3 Bft)
03.07.2018 13:21 20,7 C 66 % 1017,2 hPa 0,0 l/m 9,7 km/h (2 Bft) N-NW 338 3 min 870 W/m 14,1 C 19,5 C 17,7 km/h (3 Bft)
03.07.2018 13:24 20,6 C 65 % 1017,2 hPa 0,0 l/m 9,3 km/h (2 Bft) N-NW 342 3 min 860 W/m 13,8 C 19,5 C 17,7 km/h (3 Bft)
03.07.2018 13:27 20,6 C 65 % 1017,2 hPa 0,0 l/m 12,4 km/h (2 Bft) NW 315 3 min 870 W/m 13,8 C 18,6 C 17,7 km/h (3 Bft)
03.07.2018 13:30 20,6 C 64 % 1017,2 hPa 0,0 l/m 9,3 km/h (2 Bft) N-NW 330 3 min 865 W/m 13,5 C 19,5 C 17,7 km/h (3 Bft)
03.07.2018 13:33 20,4 C 65 % 1017,2 hPa 0,0 l/m 10,1 km/h (2 Bft) W-NW 290 3 min 863 W/m 13,6 C 19,1 C 22,5 km/h (4 Bft)
03.07.2018 13:36 20,3 C 66 % 1017,1 hPa 0,0 l/m 8,7 km/h (2 Bft) NW 319 3 min 860 W/m 13,7 C 19,4 C 17,7 km/h (3 Bft)
03.07.2018 13:39 20,4 C 66 % 1017,1 hPa 0,0 l/m 7,9 km/h (2 Bft) N-NW 327 3 min 861 W/m 13,8 C 19,8 C 19,3 km/h (3 Bft)
03.07.2018 13:42 20,6 C 66 % 1017,2 hPa 0,0 l/m 8,9 km/h (2 Bft) N-NW 327 3 min 882 W/m 14,0 C 19,7 C 16,1 km/h (3 Bft)
03.07.2018 13:45 20,4 C 66 % 1017,2 hPa 0,0 l/m 9,4 km/h (2 Bft) N-NO 27 3 min 918 W/m 13,8 C 19,3 C 17,7 km/h (3 Bft)
03.07.2018 13:48 20,8 C 64 % 1017,2 hPa 0,0 l/m 10,0 km/h (2 Bft) N 355 3 min 904 W/m 13,7 C 19,5 C 14,5 km/h (3 Bft)
03.07.2018 13:51 20,9 C 64 % 1017,2 hPa 0,0 l/m 9,8 km/h (2 Bft) W-NW 292 3 min 909 W/m 13,8 C 19,7 C 19,3 km/h (3 Bft)
03.07.2018 13:54 21,1 C 63 % 1017,2 hPa 0,0 l/m 8,9 km/h (2 Bft) N-NW 344 3 min 911 W/m 13,8 C 20,2 C 19,3 km/h (3 Bft)
03.07.2018 13:57 20,8 C 64 % 1017,1 hPa 0,0 l/m 8,7 km/h (2 Bft) NW 318 3 min 944 W/m 13,7 C 19,9 C 16,1 km/h (3 Bft)
03.07.2018 14:00 20,9 C 65 % 1017,1 hPa 0,0 l/m 8,0 km/h (2 Bft) N-NW 340 3 min 977 W/m 14,1 C 20,3 C 20,9 km/h (4 Bft)
03.07.2018 14:03 21,2 C 64 % 1017,1 hPa 0,0 l/m 10,8 km/h (2 Bft) N 360 3 min 963 W/m 14,1 C 19,7 C 17,7 km/h (3 Bft)
03.07.2018 14:06 21,2 C 63 % 1017,1 hPa 0,0 l/m 8,3 km/h (2 Bft) NW 316 3 min 1004 W/m 13,9 C 20,5 C 17,7 km/h (3 Bft)
03.07.2018 14:09 20,9 C 64 % 1017,1 hPa 0,0 l/m 12,0 km/h (2 Bft) N-NW 331 3 min 1004 W/m 13,8 C 19,1 C 19,3 km/h (3 Bft)
03.07.2018 14:12 20,7 C 64 % 1017,1 hPa 0,0 l/m 10,4 km/h (2 Bft) N-NW 331 3 min 599 W/m 13,6 C 19,3 C 20,9 km/h (4 Bft)
03.07.2018 14:15 20,7 C 64 % 1017,1 hPa 0,0 l/m 7,4 km/h (2 Bft) NW 324 3 min 939 W/m 13,6 C 20,3 C 16,1 km/h (3 Bft)
03.07.2018 14:18 20,7 C 64 % 1017,1 hPa 0,0 l/m 10,9 km/h (2 Bft) N-NW 348 3 min 939 W/m 13,6 C 19,1 C 19,3 km/h (3 Bft)
03.07.2018 14:21 20,4 C 65 % 1017,1 hPa 0,0 l/m 8,5 km/h (2 Bft) W-NW 291 3 min 1014 W/m 13,6 C 19,6 C 16,1 km/h (3 Bft)
03.07.2018 14:24 20,4 C 65 % 1017,1 hPa 0,0 l/m 11,1 km/h (2 Bft) N 9 3 min 1014 W/m 13,6 C 18,7 C 19,3 km/h (3 Bft)
03.07.2018 14:27 20,1 C 65 % 1017,0 hPa 0,0 l/m 7,7 km/h (2 Bft) NW 324 3 min 1014 W/m 13,3 C 19,6 C 19,3 km/h (3 Bft)
03.07.2018 14:30 20,3 C 65 % 1017,0 hPa 0,0 l/m 10,3 km/h (2 Bft) W 281 3 min 1014 W/m 13,5 C 18,9 C 22,5 km/h (4 Bft)
03.07.2018 14:33 20,1 C 66 % 1017,0 hPa 0,0 l/m 9,2 km/h (2 Bft) N-NW 329 3 min 476 W/m 13,5 C 19,0 C 17,7 km/h (3 Bft)
03.07.2018 14:36 20,1 C 67 % 1017,0 hPa 0,0 l/m 9,8 km/h (2 Bft) NW 323 3 min 476 W/m 13,8 C 18,8 C 17,7 km/h (3 Bft)
03.07.2018 14:39 19,8 C 67 % 1016,9 hPa 0,0 l/m 8,4 km/h (2 Bft) N-NW 342 3 min 612 W/m 13,5 C 19,0 C 19,3 km/h (3 Bft)
03.07.2018 14:42 20,1 C 67 % 1016,9 hPa 0,0 l/m 5,3 km/h (1 Bft) W-NW 288 3 min 594 W/m 13,8 C 20,1 C 14,5 km/h (3 Bft)
03.07.2018 14:45 20,3 C 66 % 1016,9 hPa 0,0 l/m 11,2 km/h (2 Bft) W-NW 292 3 min 798 W/m 13,7 C 18,6 C 17,7 km/h (3 Bft)
03.07.2018 14:48 20,3 C 65 % 1017,0 hPa 0,0 l/m 10,0 km/h (2 Bft) NW 321 3 min 798 W/m 13,5 C 19,0 C 20,9 km/h (4 Bft)
03.07.2018 14:51 19,7 C 67 % 1016,9 hPa 0,0 l/m 9,6 km/h (2 Bft) W-NW 291 3 min 497 W/m 13,4 C 18,4 C 17,7 km/h (3 Bft)
03.07.2018 14:54 20,1 C 67 % 1016,9 hPa 0,0 l/m 6,6 km/h (2 Bft) NW 316 3 min 504 W/m 13,8 C 20,0 C 16,1 km/h (3 Bft)
03.07.2018 14:57 20,2 C 65 % 1016,9 hPa 0,0 l/m 6,1 km/h (2 Bft) N-NW 346 3 min 601 W/m 13,4 C 20,2 C 16,1 km/h (3 Bft)
03.07.2018 15:00 20,3 C 66 % 1016,9 hPa 0,0 l/m 8,5 km/h (2 Bft) NW 326 3 min 981 W/m 13,7 C 19,5 C 17,7 km/h (3 Bft)
03.07.2018 15:03 20,5 C 65 % 1016,9 hPa 0,0 l/m 8,1 km/h (2 Bft) NW 319 3 min 932 W/m 13,7 C 19,8 C 17,7 km/h (3 Bft)
03.07.2018 15:06 20,8 C 64 % 1016,9 hPa 0,0 l/m 9,1 km/h (2 Bft) NW 313 3 min 900 W/m 13,7 C 19,8 C 19,3 km/h (3 Bft)
03.07.2018 15:09 21,1 C 64 % 1016,9 hPa 0,0 l/m 11,5 km/h (2 Bft) W 277 3 min 868 W/m 14,0 C 19,4 C 22,5 km/h (4 Bft)
03.07.2018 15:12 21,1 C 63 % 1016,9 hPa 0,0 l/m 12,2 km/h (2 Bft) NW 316 3 min 865 W/m 13,8 C 19,2 C 19,3 km/h (3 Bft)
03.07.2018 15:15 20,9 C 64 % 1016,9 hPa 0,0 l/m 7,1 km/h (2 Bft) N 350 3 min 761 W/m 13,8 C 20,6 C 17,7 km/h (3 Bft)
03.07.2018 15:18 20,9 C 65 % 1016,9 hPa 0,0 l/m 10,9 km/h (2 Bft) W 269 3 min 816 W/m 14,1 C 19,4 C 20,9 km/h (4 Bft)
03.07.2018 15:21 20,7 C 63 % 1016,9 hPa 0,0 l/m 9,7 km/h (2 Bft) N-NW 331 3 min 810 W/m 13,4 C 19,5 C 19,3 km/h (3 Bft)
03.07.2018 15:24 20,7 C 64 % 1016,9 hPa 0,0 l/m 11,2 km/h (2 Bft) NW 326 3 min 802 W/m 13,6 C 19,1 C 19,3 km/h (3 Bft)
03.07.2018 15:27 20,4 C 64 % 1016,8 hPa 0,0 l/m 11,8 km/h (2 Bft) N 350 3 min 789 W/m 13,4 C 18,5 C 19,3 km/h (3 Bft)
03.07.2018 15:30 20,4 C 65 % 1016,9 hPa 0,0 l/m 12,6 km/h (3 Bft) N 350 3 min 784 W/m 13,6 C 18,3 C 20,9 km/h (4 Bft)
03.07.2018 15:33 20,2 C 65 % 1016,9 hPa 0,0 l/m 12,3 km/h (2 Bft) W-NW 292 3 min 779 W/m 13,4 C 18,2 C 19,3 km/h (3 Bft)
03.07.2018 15:36 20,4 C 66 % 1016,9 hPa 0,0 l/m 6,9 km/h (2 Bft) N 349 3 min 773 W/m 13,8 C 20,2 C 14,5 km/h (3 Bft)
03.07.2018 15:39 20,5 C 63 % 1016,8 hPa 0,0 l/m 13,2 km/h (3 Bft) N-NW 337 3 min 772 W/m 13,2 C 18,3 C 22,5 km/h (4 Bft)
03.07.2018 15:42 20,2 C 64 % 1016,8 hPa 0,0 l/m 10,3 km/h (2 Bft) NW 315 3 min 763 W/m 13,2 C 18,8 C 19,3 km/h (3 Bft)
03.07.2018 15:45 20,1 C 65 % 1016,8 hPa 0,0 l/m 11,1 km/h (2 Bft) N 360 3 min 752 W/m 13,3 C 18,4 C 20,9 km/h (4 Bft)
03.07.2018 15:48 19,8 C 65 % 1016,8 hPa 0,0 l/m 11,8 km/h (2 Bft) NW 315 3 min 756 W/m 13,0 C 17,9 C 20,9 km/h (4 Bft)
03.07.2018 15:51 19,8 C 65 % 1016,8 hPa 0,0 l/m 12,6 km/h (3 Bft) N 355 3 min 747 W/m 13,0 C 17,6 C 25,7 km/h (4 Bft)
03.07.2018 15:54 19,9 C 66 % 1016,7 hPa 0,0 l/m 9,1 km/h (2 Bft) N-NW 334 3 min 745 W/m 13,4 C 18,8 C 19,3 km/h (3 Bft)
03.07.2018 15:57 20,1 C 65 % 1016,7 hPa 0,0 l/m 10,4 km/h (2 Bft) NW 313 3 min 740 W/m 13,3 C 18,6 C 20,9 km/h (4 Bft)
03.07.2018 16:00 20,5 C 64 % 1016,7 hPa 0,0 l/m 10,6 km/h (2 Bft) NW 321 3 min 733 W/m 13,5 C 19,0 C 20,9 km/h (4 Bft)
03.07.2018 16:03 20,4 C 64 % 1016,7 hPa 0,0 l/m 9,3 km/h (2 Bft) N 5 3 min 751 W/m 13,4 C 19,3 C 17,7 km/h (3 Bft)
03.07.2018 16:06 20,2 C 64 % 1016,8 hPa 0,0 l/m 10,8 km/h (2 Bft) N 351 3 min 731 W/m 13,2 C 18,6 C 19,3 km/h (3 Bft)
03.07.2018 16:09 20,2 C 64 % 1016,7 hPa 0,0 l/m 10,4 km/h (2 Bft) NW 323 3 min 724 W/m 13,2 C 18,7 C 19,3 km/h (3 Bft)
03.07.2018 16:12 20,1 C 65 % 1016,7 hPa 0,0 l/m 7,4 km/h (2 Bft) W-NW 285 3 min 726 W/m 13,3 C 19,7 C 16,1 km/h (3 Bft)
03.07.2018 16:15 19,9 C 65 % 1016,6 hPa 0,0 l/m 11,7 km/h (2 Bft) NW 315 3 min 712 W/m 13,1 C 18,0 C 19,3 km/h (3 Bft)
03.07.2018 16:18 20,1 C 65 % 1016,6 hPa 0,0 l/m 8,6 km/h (2 Bft) N 355 3 min 703 W/m 13,3 C 19,2 C 14,5 km/h (3 Bft)
03.07.2018 16:21 20,0 C 66 % 1016,6 hPa 0,0 l/m 10,5 km/h (2 Bft) N-NW 328 3 min 705 W/m 13,4 C 18,5 C 17,7 km/h (3 Bft)
03.07.2018 16:24 20,2 C 66 % 1016,7 hPa 0,0 l/m 10,1 km/h (2 Bft) W-NW 297 3 min 693 W/m 13,6 C 18,8 C 20,9 km/h (4 Bft)
03.07.2018 16:27 20,3 C 64 % 1016,6 hPa 0,0 l/m 8,8 km/h (2 Bft) W-NW 303 3 min 693 W/m 13,3 C 19,4 C 16,1 km/h (3 Bft)
03.07.2018 16:30 20,3 C 65 % 1016,6 hPa 0,0 l/m 10,0 km/h (2 Bft) W 263 3 min 687 W/m 13,5 C 19,0 C 16,1 km/h (3 Bft)
03.07.2018 16:33 20,4 C 64 % 1016,6 hPa 0,0 l/m 10,8 km/h (2 Bft) NW 325 3 min 686 W/m 13,4 C 18,8 C 19,3 km/h (3 Bft)
03.07.2018 16:36 20,6 C 64 % 1016,6 hPa 0,0 l/m 6,5 km/h (2 Bft) W-SW 244 3 min 712 W/m 13,5 C 20,6 C 12,9 km/h (3 Bft)
03.07.2018 16:39 20,6 C 64 % 1016,6 hPa 0,0 l/m 7,6 km/h (2 Bft) W 259 3 min 487 W/m 13,5 C 20,1 C 19,3 km/h (3 Bft)
03.07.2018 16:42 20,4 C 64 % 1016,6 hPa 0,0 l/m 7,0 km/h (2 Bft) W-NW 303 3 min 782 W/m 13,4 C 20,2 C 14,5 km/h (3 Bft)
03.07.2018 16:45 20,7 C 64 % 1016,6 hPa 0,0 l/m 7,7 km/h (2 Bft) N-NW 342 3 min 803 W/m 13,6 C 20,2 C 19,3 km/h (3 Bft)
03.07.2018 16:48 20,3 C 64 % 1016,6 hPa 0,0 l/m 10,6 km/h (2 Bft) NW 304 3 min 691 W/m 13,3 C 18,8 C 20,9 km/h (4 Bft)
03.07.2018 16:51 20,4 C 65 % 1016,7 hPa 0,0 l/m 6,2 km/h (2 Bft) W 279 3 min 668 W/m 13,6 C 20,4 C 17,7 km/h (3 Bft)
03.07.2018 16:54 20,4 C 63 % 1016,7 hPa 0,0 l/m 10,5 km/h (2 Bft) W 268 3 min 657 W/m 13,1 C 18,9 C 17,7 km/h (3 Bft)
03.07.2018 16:57 20,2 C 65 % 1016,7 hPa 0,0 l/m 6,4 km/h (2 Bft) NW 307 3 min 397 W/m 13,4 C 20,2 C 12,9 km/h (3 Bft)
03.07.2018 17:00 20,0 C 66 % 1016,6 hPa 0,0 l/m 8,4 km/h (2 Bft) W-NW 294 0 min 288 W/m 13,4 C 19,2 C 16,1 km/h (3 Bft)
03.07.2018 17:03 20,2 C 65 % 1016,7 hPa 0,0 l/m 7,1 km/h (2 Bft) W 275 3 min 668 W/m 13,4 C 19,9 C 16,1 km/h (3 Bft)
03.07.2018 17:06 20,2 C 65 % 1016,7 hPa 0,0 l/m 8,3 km/h (2 Bft) N-NW 336 3 min 638 W/m 13,4 C 19,4 C 19,3 km/h (3 Bft)
03.07.2018 17:09 20,3 C 65 % 1016,7 hPa 0,0 l/m 6,3 km/h (2 Bft) NW 319 3 min 638 W/m 13,5 C 20,3 C 16,1 km/h (3 Bft)
03.07.2018 17:12 19,9 C 65 % 1016,6 hPa 0,0 l/m 8,8 km/h (2 Bft) N-NW 331 0 min 190 W/m 13,1 C 18,9 C 17,7 km/h (3 Bft)
03.07.2018 17:15 19,6 C 67 % 1016,6 hPa 0,0 l/m 13,9 km/h (3 Bft) NW 326 0 min 190 W/m 13,3 C 17,0 C 19,3 km/h (3 Bft)
03.07.2018 17:18 19,4 C 68 % 1016,6 hPa 0,0 l/m 11,8 km/h (2 Bft) NW 311 3 min 622 W/m 13,3 C 17,4 C 19,3 km/h (3 Bft)
03.07.2018 17:21 19,8 C 67 % 1016,6 hPa 0,0 l/m 10,7 km/h (2 Bft) N 360 3 min 608 W/m 13,5 C 18,2 C 19,3 km/h (3 Bft)
03.07.2018 17:24 20,1 C 66 % 1016,5 hPa 0,0 l/m 7,9 km/h (2 Bft) W-NW 296 3 min 679 W/m 13,5 C 19,5 C 17,7 km/h (3 Bft)
03.07.2018 17:27 20,1 C 65 % 1016,5 hPa 0,0 l/m 12,7 km/h (3 Bft) N-NW 336 3 min 656 W/m 13,3 C 18,0 C 19,3 km/h (3 Bft)
03.07.2018 17:30 19,9 C 65 % 1016,5 hPa 0,0 l/m 9,8 km/h (2 Bft) W-NW 302 3 min 587 W/m 13,1 C 18,6 C 17,7 km/h (3 Bft)
03.07.2018 17:33 19,9 C 66 % 1016,5 hPa 0,0 l/m 5,2 km/h (1 Bft) NW 316 3 min 563 W/m 13,4 C 19,9 C 12,9 km/h (3 Bft)
03.07.2018 17:36 19,5 C 67 % 1016,6 hPa 0,0 l/m 10,1 km/h (2 Bft) N-NW 336 0 min 239 W/m 13,2 C 18,1 C 19,3 km/h (3 Bft)
03.07.2018 17:39 19,4 C 68 % 1016,6 hPa 0,0 l/m 9,4 km/h (2 Bft) W 277 3 min 599 W/m 13,3 C 18,2 C 16,1 km/h (3 Bft)
03.07.2018 17:42 19,7 C 66 % 1016,6 hPa 0,0 l/m 10,6 km/h (2 Bft) NW 325 3 min 534 W/m 13,2 C 18,1 C 19,3 km/h (3 Bft)
03.07.2018 17:45 19,4 C 67 % 1016,5 hPa 0,0 l/m 7,4 km/h (2 Bft) NW 310 0 min 229 W/m 13,1 C 19,0 C 14,5 km/h (3 Bft)
03.07.2018 17:48 19,2 C 68 % 1016,5 hPa 0,0 l/m 11,3 km/h (2 Bft) N-NW 329 0 min 229 W/m 13,1 C 17,3 C 20,9 km/h (4 Bft)
03.07.2018 17:51 19,4 C 68 % 1016,5 hPa 0,0 l/m 9,7 km/h (2 Bft) N-NW 329 3 min 589 W/m 13,3 C 18,1 C 17,7 km/h (3 Bft)
03.07.2018 17:54 19,3 C 67 % 1016,5 hPa 0,0 l/m 10,3 km/h (2 Bft) N-NW 328 0 min 220 W/m 13,0 C 17,8 C 16,1 km/h (3 Bft)
03.07.2018 17:57 19,3 C 68 % 1016,5 hPa 0,0 l/m 10,5 km/h (2 Bft) NW 316 3 min 520 W/m 13,2 C 17,7 C 19,3 km/h (3 Bft)
03.07.2018 18:00 19,2 C 68 % 1016,5 hPa 0,0 l/m 8,3 km/h (2 Bft) N-NW 331 3 min 496 W/m 13,1 C 18,4 C 14,5 km/h (3 Bft)
03.07.2018 18:03 19,2 C 68 % 1016,5 hPa 0,0 l/m 7,6 km/h (2 Bft) W 281 3 min 485 W/m 13,1 C 18,7 C 16,1 km/h (3 Bft)
03.07.2018 18:06 19,3 C 67 % 1016,4 hPa 0,0 l/m 9,3 km/h (2 Bft) N 355 3 min 482 W/m 13,0 C 18,1 C 17,7 km/h (3 Bft)
03.07.2018 18:09 19,4 C 67 % 1016,5 hPa 0,0 l/m 10,9 km/h (2 Bft) N-NW 338 3 min 462 W/m 13,1 C 17,7 C 17,7 km/h (3 Bft)
03.07.2018 18:12 19,4 C 67 % 1016,4 hPa 0,0 l/m 9,6 km/h (2 Bft) N 9 3 min 455 W/m 13,1 C 18,1 C 16,1 km/h (3 Bft)
03.07.2018 18:15 19,4 C 67 % 1016,4 hPa 0,0 l/m 10,0 km/h (2 Bft) N-NW 328 3 min 445 W/m 13,1 C 18,0 C 17,7 km/h (3 Bft)
03.07.2018 18:18 19,1 C 67 % 1016,4 hPa 0,0 l/m 10,8 km/h (2 Bft) N-NW 340 0 min 125 W/m 12,8 C 17,4 C 17,7 km/h (3 Bft)
03.07.2018 18:21 18,8 C 70 % 1016,4 hPa 0,0 l/m 8,3 km/h (2 Bft) N 360 3 min 545 W/m 13,2 C 18,0 C 17,7 km/h (3 Bft)
03.07.2018 18:24 19,2 C 69 % 1016,3 hPa 0,0 l/m 7,2 km/h (2 Bft) N-NW 329 3 min 504 W/m 13,4 C 18,9 C 14,5 km/h (3 Bft)
03.07.2018 18:27 19,4 C 68 % 1016,3 hPa 0,0 l/m 9,0 km/h (2 Bft) NW 308 3 min 510 W/m 13,3 C 18,3 C 16,1 km/h (3 Bft)
03.07.2018 18:30 19,1 C 68 % 1016,3 hPa 0,0 l/m 6,4 km/h (2 Bft) W-NW 300 0 min 120 W/m 13,1 C 19,1 C 16,1 km/h (3 Bft)
03.07.2018 18:33 19,0 C 69 % 1016,2 hPa 0,0 l/m 7,7 km/h (2 Bft) N-NW 328 3 min 436 W/m 13,2 C 18,4 C 16,1 km/h (3 Bft)
03.07.2018 18:36 19,1 C 68 % 1016,1 hPa 0,0 l/m 10,7 km/h (2 Bft) N 355 3 min 443 W/m 13,1 C 17,4 C 17,7 km/h (3 Bft)
03.07.2018 18:39 18,9 C 69 % 1016,1 hPa 0,0 l/m 7,7 km/h (2 Bft) N 355 3 min 385 W/m 13,1 C 18,3 C 14,5 km/h (3 Bft)
03.07.2018 18:42 18,9 C 69 % 1016,1 hPa 0,0 l/m 11,1 km/h (2 Bft) W 270 3 min 315 W/m 13,1 C 17,0 C 19,3 km/h (3 Bft)
03.07.2018 18:45 18,7 C 69 % 1016,0 hPa 0,0 l/m 8,1 km/h (2 Bft) N-NW 345 0 min 65 W/m 12,9 C 17,9 C 14,5 km/h (3 Bft)
03.07.2018 18:48 18,8 C 69 % 1016,0 hPa 0,0 l/m 11,0 km/h (2 Bft) W 279 0 min 65 W/m 13,0 C 17,0 C 19,3 km/h (3 Bft)
03.07.2018 18:51 18,7 C 70 % 1015,9 hPa 0,0 l/m 5,4 km/h (2 Bft) N-NW 339 0 min 47 W/m 13,1 C 18,7 C 12,9 km/h (3 Bft)
03.07.2018 18:54 18,7 C 70 % 1015,8 hPa 0,0 l/m 6,2 km/h (2 Bft) N-NW 332 0 min 46 W/m 13,1 C 18,7 C 12,9 km/h (3 Bft)
03.07.2018 18:57 18,8 C 69 % 1015,9 hPa 0,0 l/m 10,4 km/h (2 Bft) N-NO 14 0 min 79 W/m 13,0 C 17,2 C 16,1 km/h (3 Bft)
03.07.2018 19:00 18,7 C 70 % 1015,8 hPa 0,0 l/m 9,4 km/h (2 Bft) W-NW 300 0 min 46 W/m 13,1 C 17,4 C 16,1 km/h (3 Bft)
03.07.2018 19:03 18,7 C 70 % 1015,9 hPa 0,0 l/m 12,3 km/h (2 Bft) N-NW 334 0 min 46 W/m 13,1 C 16,4 C 20,9 km/h (4 Bft)
03.07.2018 19:06 18,4 C 70 % 1015,9 hPa 0,0 l/m 7,0 km/h (2 Bft) NW 310 0 min 58 W/m 12,8 C 18,1 C 14,5 km/h (3 Bft)
03.07.2018 19:09 18,3 C 71 % 1015,9 hPa 0,0 l/m 5,5 km/h (2 Bft) NW 314 0 min 54 W/m 12,9 C 18,3 C 16,1 km/h (3 Bft)
03.07.2018 19:12 18,2 C 71 % 1015,9 hPa 0,0 l/m 5,8 km/h (2 Bft) NW 305 0 min 60 W/m 12,9 C 18,2 C 14,5 km/h (3 Bft)
03.07.2018 19:15 18,0 C 71 % 1015,9 hPa 0,0 l/m 7,6 km/h (2 Bft) W 266 0 min 44 W/m 12,7 C 17,4 C 12,9 km/h (3 Bft)
03.07.2018 19:18 18,1 C 72 % 1015,8 hPa 0,0 l/m 7,1 km/h (2 Bft) N 360 0 min 58 W/m 13,0 C 17,8 C 14,5 km/h (3 Bft)
03.07.2018 19:21 18,1 C 71 % 1015,8 hPa 0,0 l/m 5,8 km/h (2 Bft) N-NW 333 0 min 47 W/m 12,8 C 18,1 C 14,5 km/h (3 Bft)
03.07.2018 19:24 17,9 C 73 % 1015,8 hPa 0,0 l/m 9,0 km/h (2 Bft) N-NW 334 0 min 49 W/m 13,0 C 16,7 C 19,3 km/h (3 Bft)
03.07.2018 19:27 17,8 C 73 % 1015,9 hPa 0,0 l/m 7,6 km/h (2 Bft) W-NW 294 0 min 58 W/m 12,9 C 17,2 C 14,5 km/h (3 Bft)
03.07.2018 19:30 17,8 C 73 % 1015,9 hPa 0,0 l/m 7,0 km/h (2 Bft) W-NW 297 0 min 49 W/m 12,9 C 17,5 C 12,9 km/h (3 Bft)
03.07.2018 19:33 17,8 C 73 % 1015,9 hPa 0,0 l/m 7,7 km/h (2 Bft) N 351 0 min 44 W/m 12,9 C 17,2 C 16,1 km/h (3 Bft)
03.07.2018 19:36 17,8 C 73 % 1015,9 hPa 0,0 l/m 5,6 km/h (2 Bft) W-NW 298 0 min 54 W/m 12,9 C 17,8 C 11,3 km/h (2 Bft)
03.07.2018 19:39 17,8 C 73 % 1015,9 hPa 0,0 l/m 8,6 km/h (2 Bft) N-NW 327 0 min 51 W/m 12,9 C 16,8 C 16,1 km/h (3 Bft)
03.07.2018 19:42 17,7 C 73 % 1015,9 hPa 0,0 l/m 7,5 km/h (2 Bft) NW 325 0 min 53 W/m 12,8 C 17,2 C 12,9 km/h (3 Bft)
03.07.2018 19:45 17,7 C 73 % 1015,8 hPa 0,0 l/m 8,1 km/h (2 Bft) N 360 0 min 63 W/m 12,8 C 16,9 C 14,5 km/h (3 Bft)
03.07.2018 19:48 17,6 C 73 % 1015,8 hPa 0,0 l/m 6,9 km/h (2 Bft) N-NW 346 0 min 67 W/m 12,7 C 17,4 C 16,1 km/h (3 Bft)
03.07.2018 19:51 17,6 C 74 % 1015,7 hPa 0,0 l/m 4,7 km/h (1 Bft) W-NW 283 0 min 42 W/m 12,9 C 17,6 C 9,7 km/h (2 Bft)
03.07.2018 19:54 17,6 C 74 % 1015,7 hPa 0,0 l/m 5,0 km/h (1 Bft) W-NW 292 0 min 72 W/m 12,9 C 17,6 C 11,3 km/h (2 Bft)
03.07.2018 19:57 17,5 C 74 % 1015,7 hPa 0,0 l/m 10,4 km/h (2 Bft) N-NW 337 0 min 46 W/m 12,8 C 15,7 C 17,7 km/h (3 Bft)
03.07.2018 20:00 17,4 C 74 % 1015,7 hPa 0,0 l/m 5,8 km/h (2 Bft) NW 306 0 min 60 W/m 12,7 C 17,4 C 12,9 km/h (3 Bft)
03.07.2018 20:03 17,5 C 74 % 1015,7 hPa 0,0 l/m 5,4 km/h (2 Bft) N-NW 332 0 min 69 W/m 12,8 C 17,5 C 12,9 km/h (3 Bft)
03.07.2018 20:06 17,5 C 74 % 1015,7 hPa 0,0 l/m 5,8 km/h (2 Bft) W-NW 296 0 min 60 W/m 12,8 C 17,5 C 12,9 km/h (3 Bft)
03.07.2018 20:09 17,4 C 74 % 1015,7 hPa 0,0 l/m 7,0 km/h (2 Bft) N-NW 333 0 min 51 W/m 12,7 C 17,1 C 12,9 km/h (3 Bft)
03.07.2018 20:12 17,3 C 74 % 1015,7 hPa 0,0 l/m 9,0 km/h (2 Bft) NW 326 0 min 56 W/m 12,6 C 16,1 C 17,7 km/h (3 Bft)
03.07.2018 20:15 17,3 C 75 % 1015,7 hPa 0,0 l/m 8,1 km/h (2 Bft) N 360 0 min 65 W/m 12,8 C 16,5 C 16,1 km/h (3 Bft)
03.07.2018 20:18 17,3 C 74 % 1015,7 hPa 0,0 l/m 7,7 km/h (2 Bft) NW 304 0 min 60 W/m 12,6 C 16,7 C 12,9 km/h (3 Bft)
03.07.2018 20:21 17,3 C 74 % 1015,7 hPa 0,0 l/m 7,1 km/h (2 Bft) W-NW 292 0 min 42 W/m 12,6 C 17,0 C 14,5 km/h (3 Bft)
03.07.2018 20:24 17,2 C 74 % 1015,7 hPa 0,0 l/m 4,9 km/h (1 Bft) NW 312 0 min 42 W/m 12,5 C 17,2 C 9,7 km/h (2 Bft)
03.07.2018 20:27 17,2 C 74 % 1015,7 hPa 0,0 l/m 9,8 km/h (2 Bft) N-NW 341 0 min 37 W/m 12,5 C 15,6 C 16,1 km/h (3 Bft)
03.07.2018 20:30 17,2 C 74 % 1015,7 hPa 0,0 l/m 6,3 km/h (2 Bft) NW 317 0 min 30 W/m 12,5 C 17,2 C 16,1 km/h (3 Bft)
03.07.2018 20:33 17,1 C 74 % 1015,7 hPa 0,0 l/m 7,2 km/h (2 Bft) N-NW 327 0 min 33 W/m 12,4 C 16,7 C 12,9 km/h (3 Bft)
03.07.2018 20:36 17,0 C 75 % 1015,7 hPa 0,0 l/m 5,2 km/h (1 Bft) W-NW 286 0 min 35 W/m 12,5 C 17,0 C 14,5 km/h (3 Bft)
03.07.2018 20:39 17,0 C 75 % 1015,7 hPa 0,0 l/m 7,1 km/h (2 Bft) NW 319 0 min 28 W/m 12,5 C 16,6 C 14,5 km/h (3 Bft)
03.07.2018 20:42 17,1 C 75 % 1015,6 hPa 0,0 l/m 6,0 km/h (2 Bft) N-NW 342 0 min 32 W/m 12,6 C 17,1 C 12,9 km/h (3 Bft)
03.07.2018 20:45 17,0 C 75 % 1015,6 hPa 0,0 l/m 6,9 km/h (2 Bft) N-NW 337 0 min 21 W/m 12,5 C 16,8 C 14,5 km/h (3 Bft)
03.07.2018 20:48 16,9 C 75 % 1015,7 hPa 0,0 l/m 8,3 km/h (2 Bft) NW 320 0 min 21 W/m 12,4 C 16,0 C 16,1 km/h (3 Bft)
03.07.2018 20:51 16,8 C 75 % 1015,6 hPa 0,0 l/m 5,6 km/h (2 Bft) NW 323 0 min 19 W/m 12,3 C 16,8 C 9,7 km/h (2 Bft)
03.07.2018 20:54 16,8 C 75 % 1015,6 hPa 0,0 l/m 5,1 km/h (1 Bft) N-NW 331 0 min 19 W/m 12,3 C 16,8 C 9,7 km/h (2 Bft)
03.07.2018 20:57 16,7 C 76 % 1015,6 hPa 0,0 l/m 5,6 km/h (2 Bft) W-NW 293 0 min 19 W/m 12,4 C 16,7 C 9,7 km/h (2 Bft)
03.07.2018 21:00 16,7 C 76 % 1015,6 hPa 0,0 l/m 4,7 km/h (1 Bft) W-NW 296 0 min 16 W/m 12,4 C 16,7 C 12,9 km/h (3 Bft)
03.07.2018 21:03 16,6 C 76 % 1015,6 hPa 0,0 l/m 5,4 km/h (2 Bft) N-NW 340 0 min 21 W/m 12,3 C 16,6 C 8,0 km/h (2 Bft)
03.07.2018 21:06 16,6 C 76 % 1015,5 hPa 0,0 l/m 6,0 km/h (2 Bft) N-NW 331 0 min 16 W/m 12,3 C 16,6 C 12,9 km/h (3 Bft)
03.07.2018 21:09 16,6 C 77 % 1015,5 hPa 0,0 l/m 6,9 km/h (2 Bft) NW 323 0 min 16 W/m 12,5 C 16,3 C 12,9 km/h (3 Bft)
03.07.2018 21:12 16,6 C 77 % 1015,5 hPa 0,0 l/m 6,0 km/h (2 Bft) N-NW 348 0 min 14 W/m 12,5 C 16,6 C 12,9 km/h (3 Bft)
03.07.2018 21:15 16,5 C 77 % 1015,5 hPa 0,0 l/m 5,9 km/h (2 Bft) N 355 0 min 14 W/m 12,5 C 16,5 C 14,5 km/h (3 Bft)
03.07.2018 21:18 16,4 C 78 % 1015,5 hPa 0,0 l/m 6,9 km/h (2 Bft) N-NW 347 0 min 12 W/m 12,6 C 16,1 C 14,5 km/h (3 Bft)
03.07.2018 21:21 16,4 C 78 % 1015,5 hPa 0,0 l/m 7,8 km/h (2 Bft) N-NW 334 0 min 12 W/m 12,6 C 15,7 C 12,9 km/h (3 Bft)
03.07.2018 21:24 16,3 C 78 % 1015,5 hPa 0,0 l/m 5,8 km/h (2 Bft) W-NW 289 0 min 12 W/m 12,5 C 16,3 C 14,5 km/h (3 Bft)
03.07.2018 21:27 16,2 C 78 % 1015,5 hPa 0,0 l/m 6,0 km/h (2 Bft) N-NW 341 0 min 12 W/m 12,4 C 16,2 C 14,5 km/h (3 Bft)
03.07.2018 21:30 16,2 C 79 % 1015,6 hPa 0,0 l/m 6,1 km/h (2 Bft) NW 321 0 min 11 W/m 12,6 C 16,2 C 11,3 km/h (2 Bft)
03.07.2018 21:33 16,2 C 79 % 1015,5 hPa 0,0 l/m 6,7 km/h (2 Bft) N-NW 346 0 min 11 W/m 12,6 C 16,1 C 12,9 km/h (3 Bft)
03.07.2018 21:36 16,3 C 79 % 1015,6 hPa 0,0 l/m 6,3 km/h (2 Bft) N 355 0 min 7 W/m 12,6 C 16,3 C 12,9 km/h (3 Bft)
03.07.2018 21:39 16,3 C 79 % 1015,6 hPa 0,0 l/m 7,2 km/h (2 Bft) N-NW 333 0 min 11 W/m 12,6 C 15,9 C 12,9 km/h (3 Bft)
03.07.2018 21:42 16,3 C 78 % 1015,6 hPa 0,0 l/m 6,3 km/h (2 Bft) NW 320 0 min 7 W/m 12,5 C 16,3 C 12,9 km/h (3 Bft)
03.07.2018 21:45 16,3 C 78 % 1015,6 hPa 0,0 l/m 6,4 km/h (2 Bft) N-NW 333 0 min 5 W/m 12,5 C 16,3 C 9,7 km/h (2 Bft)
03.07.2018 21:48 16,2 C 79 % 1015,6 hPa 0,0 l/m 5,3 km/h (1 Bft) N-NW 348 0 min 5 W/m 12,6 C 16,2 C 8,0 km/h (2 Bft)
03.07.2018 21:51 16,2 C 79 % 1015,6 hPa 0,0 l/m 8,3 km/h (2 Bft) N-NW 346 0 min 0 W/m 12,6 C 15,2 C 12,9 km/h (3 Bft)
03.07.2018 21:54 16,1 C 79 % 1015,5 hPa 0,0 l/m 7,9 km/h (2 Bft) N-NW 328 0 min 0 W/m 12,5 C 15,3 C 12,9 km/h (3 Bft)
03.07.2018 21:57 16,1 C 79 % 1015,5 hPa 0,0 l/m 6,4 km/h (2 Bft) N-NW 342 0 min 0 W/m 12,5 C 16,1 C 9,7 km/h (2 Bft)
03.07.2018 22:00 16,0 C 79 % 1015,6 hPa 0,0 l/m 6,2 km/h (2 Bft) N 355 0 min 0 W/m 12,4 C 16,0 C 9,7 km/h (2 Bft)
03.07.2018 22:03 15,9 C 79 % 1015,5 hPa 0,0 l/m 5,4 km/h (2 Bft) N-NW 333 0 min 0 W/m 12,3 C 15,9 C 9,7 km/h (2 Bft)
03.07.2018 22:06 15,9 C 80 % 1015,5 hPa 0,0 l/m 6,2 km/h (2 Bft) N-NW 336 0 min 0 W/m 12,5 C 15,9 C 12,9 km/h (3 Bft)
03.07.2018 22:09 15,9 C 80 % 1015,5 hPa 0,0 l/m 5,9 km/h (2 Bft) N 355 0 min 0 W/m 12,5 C 15,9 C 12,9 km/h (3 Bft)
03.07.2018 22:12 15,8 C 80 % 1015,6 hPa 0,0 l/m 6,7 km/h (2 Bft) N-NW 339 0 min 0 W/m 12,4 C 15,6 C 12,9 km/h (3 Bft)
03.07.2018 22:15 15,8 C 80 % 1015,6 hPa 0,0 l/m 5,9 km/h (2 Bft) N-NW 333 0 min 0 W/m 12,4 C 15,8 C 12,9 km/h (3 Bft)
03.07.2018 22:18 15,8 C 80 % 1015,6 hPa 0,0 l/m 6,8 km/h (2 Bft) NW 325 0 min 0 W/m 12,4 C 15,6 C 14,5 km/h (3 Bft)
03.07.2018 22:21 15,8 C 80 % 1015,6 hPa 0,0 l/m 6,4 km/h (2 Bft) NW 325 0 min 0 W/m 12,4 C 15,8 C 9,7 km/h (2 Bft)
03.07.2018 22:24 15,8 C 80 % 1015,6 hPa 0,0 l/m 4,4 km/h (1 Bft) NW 311 0 min 0 W/m 12,4 C 15,8 C 11,3 km/h (2 Bft)
03.07.2018 22:27 15,7 C 80 % 1015,6 hPa 0,0 l/m 6,0 km/h (2 Bft) NW 313 0 min 0 W/m 12,3 C 15,7 C 9,7 km/h (2 Bft)
03.07.2018 22:30 15,7 C 80 % 1015,5 hPa 0,0 l/m 4,5 km/h (1 Bft) NW 326 0 min 0 W/m 12,3 C 15,7 C 9,7 km/h (2 Bft)
03.07.2018 22:33 15,7 C 81 % 1015,6 hPa 0,0 l/m 4,9 km/h (1 Bft) N-NW 329 0 min 0 W/m 12,4 C 15,7 C 12,9 km/h (3 Bft)
03.07.2018 22:36 15,7 C 81 % 1015,6 hPa 0,0 l/m 5,9 km/h (2 Bft) W-NW 290 0 min 0 W/m 12,4 C 15,7 C 9,7 km/h (2 Bft)
03.07.2018 22:39 15,7 C 81 % 1015,7 hPa 0,0 l/m 5,5 km/h (2 Bft) NW 326 0 min 0 W/m 12,4 C 15,7 C 12,9 km/h (3 Bft)
03.07.2018 22:42 15,6 C 81 % 1015,6 hPa 0,0 l/m 5,6 km/h (2 Bft) NW 326 0 min 0 W/m 12,3 C 15,6 C 11,3 km/h (2 Bft)
03.07.2018 22:45 15,6 C 81 % 1015,6 hPa 0,0 l/m 4,4 km/h (1 Bft) NW 325 0 min 0 W/m 12,3 C 15,6 C 9,7 km/h (2 Bft)
03.07.2018 22:48 15,5 C 81 % 1015,6 hPa 0,0 l/m 5,0 km/h (1 Bft) NW 321 0 min 0 W/m 12,3 C 15,5 C 8,0 km/h (2 Bft)
03.07.2018 22:51 15,4 C 81 % 1015,6 hPa 0,0 l/m 3,8 km/h (1 Bft) N-NW 331 0 min 0 W/m 12,2 C 15,4 C 6,4 km/h (2 Bft)
03.07.2018 22:54 15,4 C 82 % 1015,6 hPa 0,0 l/m 6,6 km/h (2 Bft) NW 323 0 min 0 W/m 12,3 C 15,3 C 14,5 km/h (3 Bft)
03.07.2018 22:57 15,4 C 82 % 1015,6 hPa 0,0 l/m 4,8 km/h (1 Bft) N-NW 328 0 min 0 W/m 12,3 C 15,4 C 9,7 km/h (2 Bft)
03.07.2018 23:00 15,3 C 82 % 1015,6 hPa 0,0 l/m 5,7 km/h (2 Bft) NW 317 0 min 0 W/m 12,2 C 15,3 C 12,9 km/h (3 Bft)
03.07.2018 23:03 15,3 C 82 % 1015,6 hPa 0,0 l/m 5,0 km/h (1 Bft) NW 312 0 min 0 W/m 12,2 C 15,3 C 9,7 km/h (2 Bft)
03.07.2018 23:06 15,3 C 83 % 1015,6 hPa 0,0 l/m 4,5 km/h (1 Bft) N-NW 327 0 min 0 W/m 12,4 C 15,3 C 12,9 km/h (3 Bft)
03.07.2018 23:09 15,3 C 82 % 1015,6 hPa 0,0 l/m 3,3 km/h (1 Bft) N-NW 327 0 min 0 W/m 12,2 C 15,3 C 8,0 km/h (2 Bft)
03.07.2018 23:12 15,3 C 82 % 1015,6 hPa 0,0 l/m 4,1 km/h (1 Bft) N-NW 327 0 min 0 W/m 12,2 C 15,3 C 8,0 km/h (2 Bft)
03.07.2018 23:15 15,2 C 83 % 1015,6 hPa 0,0 l/m 4,0 km/h (1 Bft) N-NW 343 0 min 0 W/m 12,3 C 15,2 C 8,0 km/h (2 Bft)
03.07.2018 23:18 15,2 C 83 % 1015,6 hPa 0,0 l/m 3,1 km/h (1 Bft) NW 321 0 min 0 W/m 12,3 C 15,2 C 9,7 km/h (2 Bft)
03.07.2018 23:21 15,2 C 83 % 1015,6 hPa 0,0 l/m 5,2 km/h (1 Bft) NW 308 0 min 0 W/m 12,3 C 15,2 C 12,9 km/h (3 Bft)
03.07.2018 23:24 15,2 C 83 % 1015,6 hPa 0,0 l/m 4,0 km/h (1 Bft) N-NW 333 0 min 0 W/m 12,3 C 15,2 C 8,0 km/h (2 Bft)
03.07.2018 23:27 15,2 C 83 % 1015,6 hPa 0,0 l/m 5,2 km/h (1 Bft) N-NW 330 0 min 0 W/m 12,3 C 15,2 C 12,9 km/h (3 Bft)
03.07.2018 23:30 15,2 C 83 % 1015,6 hPa 0,0 l/m 4,9 km/h (1 Bft) NW 313 0 min 0 W/m 12,3 C 15,2 C 9,7 km/h (2 Bft)
03.07.2018 23:33 15,2 C 83 % 1015,5 hPa 0,0 l/m 4,8 km/h (1 Bft) NW 319 0 min 0 W/m 12,3 C 15,2 C 12,9 km/h (3 Bft)
03.07.2018 23:36 15,2 C 83 % 1015,5 hPa 0,0 l/m 3,4 km/h (1 Bft) NW 310 0 min 0 W/m 12,3 C 15,2 C 6,4 km/h (2 Bft)
03.07.2018 23:39 15,2 C 83 % 1015,5 hPa 0,0 l/m 3,2 km/h (1 Bft) NW 319 0 min 0 W/m 12,3 C 15,2 C 6,4 km/h (2 Bft)
03.07.2018 23:42 15,2 C 83 % 1015,5 hPa 0,0 l/m 4,7 km/h (1 Bft) N-NW 335 0 min 0 W/m 12,3 C 15,2 C 12,9 km/h (3 Bft)
03.07.2018 23:45 15,1 C 83 % 1015,6 hPa 0,0 l/m 4,8 km/h (1 Bft) N-NW 331 0 min 0 W/m 12,2 C 15,1 C 8,0 km/h (2 Bft)
03.07.2018 23:48 15,0 C 83 % 1015,6 hPa 0,0 l/m 4,8 km/h (1 Bft) N-NW 329 0 min 0 W/m 12,1 C 15,0 C 9,7 km/h (2 Bft)
03.07.2018 23:51 15,0 C 84 % 1015,6 hPa 0,0 l/m 3,9 km/h (1 Bft) NW 309 0 min 0 W/m 12,3 C 15,0 C 8,0 km/h (2 Bft)
03.07.2018 23:54 15,0 C 84 % 1015,6 hPa 0,0 l/m 4,6 km/h (1 Bft) NW 316 0 min 0 W/m 12,3 C 15,0 C 8,0 km/h (2 Bft)
03.07.2018 23:57 14,9 C 84 % 1015,6 hPa 0,0 l/m 4,6 km/h (1 Bft) N-NW 328 0 min 0 W/m 12,2 C 14,9 C 12,9 km/h (3 Bft)
_ Min-Zeit 02:42 13:54 21:06 - 01:12 - - - - 02:42 02:42 01:15
Minimum _ 13,1 C 63 % 1015,5 hPa - 0,0 km/h (0 Bft) - - - - 11,3 C 13,1 C 0,0 km/h (0 Bft)
_ Max-Zeit 14:03 03:18 11:36 00:00 17:15 - - 08:30 14:21 08:39 12:51 15:51
Maximum _ 21,2 C 92 % 1017,5 hPa 0,0 l/m 13,9 km/h
NW (3 Bft)
- - 3 min 1014 W/m 15,4 C 20,8 C 25,7 km/h
NW (4 Bft)
Durchschnitt _ 17,6 C 77 % 1016,7 hPa #0,0 l/m 6,3 km/h (2 Bft) N-NW - #9:03 h 409 W/m 13,5 C 17,2 C 12,6 km/h (3 Bft)
2018 Cux-Wetter.de -Die Nutzung der Wetterdaten nur mit ausdrcklicher Genehmigung